| time (UTC) | temp F | wind direction | speed knots | gust knots | rain 1hr in | rain 24hr in | rain mn in | humidity % | barometer mb |
| 20260504215126 | 60 | 86 | 2.6 | 7.8 | 0.00 | 0.00 | 0.00 | 78 | 1012.0 |
| 20260504215026 | 60 | 180 | 2.6 | 7.8 | 0.00 | 0.00 | 0.00 | 78 | 1011.9 |
| 20260504214926 | 60 | 261 | 2.6 | 7.0 | 0.00 | 0.00 | 0.00 | 77 | 1012.0 |
| 20260504214826 | 60 | 171 | 2.6 | 7.0 | 0.00 | 0.00 | 0.00 | 78 | 1011.9 |
| 20260504214722 | 60 | 178 | 1.7 | 7.0 | 0.00 | 0.00 | 0.00 | 77 | 1011.9 |
| 20260504214622 | 60 | 252 | 1.7 | 7.0 | 0.00 | 0.00 | 0.00 | 77 | 1011.9 |
| 20260504214522 | 60 | 300 | 1.7 | 7.0 | 0.00 | 0.00 | 0.00 | 77 | 1012.0 |
| 20260504214422 | 60 | 157 | 1.7 | 7.0 | 0.00 | 0.00 | 0.00 | 77 | 1011.9 |
| 20260504214319 | 60 | 116 | 1.7 | 7.0 | 0.00 | 0.00 | 0.00 | 77 | 1011.9 |
| 20260504214220 | 60 | 138 | 1.7 | 7.0 | 0.00 | 0.00 | 0.00 | 77 | 1012.0 |
| 20260504214118 | 60 | 312 | 1.7 | 5.2 | 0.00 | 0.00 | 0.00 | 77 | 1011.9 |
| 20260504214016 | 60 | 331 | 1.7 | 5.2 | 0.00 | 0.00 | 0.00 | 77 | 1012.0 |
| 20260504213916 | 60 | 267 | 1.7 | 7.8 | 0.00 | 0.00 | 0.00 | 77 | 1012.0 |
| 20260504213814 | 60 | 98 | 1.7 | 7.8 | 0.00 | 0.00 | 0.00 | 77 | 1012.0 |
| 20260504213708 | 60 | 244 | 1.7 | 7.8 | 0.00 | 0.00 | 0.00 | 77 | 1012.0 |
| 20260504213608 | 60 | 0 | 1.7 | 7.8 | 0.00 | 0.00 | 0.00 | 77 | 1012.0 |
| 20260504213508 | 60 | 266 | 1.7 | 7.8 | 0.00 | 0.00 | 0.00 | 77 | 1011.9 |
| 20260504213408 | 60 | 5 | 1.7 | 7.8 | 0.00 | 0.00 | 0.00 | 77 | 1012.0 |
| 20260504213307 | 60 | 324 | 1.7 | 7.8 | 0.00 | 0.00 | 0.00 | 77 | 1012.0 |
| 20260504213204 | 60 | 250 | 1.7 | 7.8 | 0.00 | 0.00 | 0.00 | 77 | 1012.0 |
| 20260504213104 | 60 | 279 | 1.7 | 7.8 | 0.00 | 0.00 | 0.00 | 78 | 1012.0 |
| 20260504213006 | 60 | 321 | 1.7 | 7.8 | 0.00 | 0.00 | 0.00 | 78 | 1012.0 |
| 20260504212904 | 60 | 213 | 1.7 | 6.1 | 0.00 | 0.00 | 0.00 | 78 | 1012.0 |
| 20260504212802 | 60 | 223 | 1.7 | 6.1 | 0.00 | 0.00 | 0.00 | 78 | 1012.0 |
| 20260504212702 | 60 | 261 | 0.9 | 6.1 | 0.00 | 0.00 | 0.00 | 78 | 1012.1 |
| 20260504212601 | 60 | 223 | 1.7 | 6.1 | 0.00 | 0.00 | 0.00 | 78 | 1012.1 |
| 20260504212500 | 60 | 165 | 1.7 | 6.1 | 0.00 | 0.00 | 0.00 | 78 | 1012.1 |
| 20260504212359 | 60 | 186 | 1.7 | 9.6 | 0.00 | 0.00 | 0.00 | 78 | 1012.1 |
| 20260504212256 | 60 | 172 | 1.7 | 9.6 | 0.00 | 0.00 | 0.00 | 78 | 1012.1 |
| 20260504212152 | 60 | 339 | 2.6 | 9.6 | 0.00 | 0.00 | 0.00 | 78 | 1012.1 |
| 20260504212050 | 60 | 162 | 2.6 | 12.2 | 0.00 | 0.00 | 0.00 | 78 | 1012.1 |
| 20260504212036 | 60 | 190 | 2.6 | 12.2 | 0.00 | 0.00 | 0.00 | 78 | 1012.1 |
| 20260504211850 | 60 | 223 | 2.6 | 12.2 | 0.00 | 0.00 | 0.00 | 77 | 1012.0 |
| 20260504211749 | 60 | 190 | 2.6 | 12.2 | 0.00 | 0.00 | 0.00 | 77 | 1012.1 |
| 20260504211644 | 60 | 283 | 2.6 | 12.2 | 0.00 | 0.00 | 0.00 | 77 | 1012.0 |
| 20260504211544 | 60 | 231 | 2.6 | 12.2 | 0.00 | 0.00 | 0.00 | 77 | 1012.1 |
| 20260504211444 | 60 | 276 | 2.6 | 12.2 | 0.00 | 0.00 | 0.00 | 77 | 1012.0 |
| 20260504211344 | 60 | 258 | 2.6 | 12.2 | 0.00 | 0.00 | 0.00 | 77 | 1012.1 |
| 20260504211244 | 60 | 242 | 2.6 | 12.2 | 0.00 | 0.00 | 0.00 | 77 | 1012.0 |
| 20260504211138 | 60 | 297 | 2.6 | 12.2 | 0.00 | 0.00 | 0.00 | 77 | 1012.0 |
| 20260504211038 | 60 | 278 | 2.6 | 9.6 | 0.00 | 0.00 | 0.00 | 77 | 1012.0 |
| 20260504210938 | 60 | 193 | 2.6 | 9.6 | 0.00 | 0.00 | 0.00 | 77 | 1012.0 |
| 20260504210838 | 60 | 230 | 2.6 | 9.6 | 0.00 | 0.00 | 0.00 | 77 | 1012.0 |
| 20260504210738 | 60 | 346 | 2.6 | 9.6 | 0.00 | 0.00 | 0.00 | 77 | 1012.0 |
| 20260504210636 | 60 | 281 | 2.6 | 9.6 | 0.00 | 0.00 | 0.00 | 77 | 1012.0 |
| 20260504210536 | 60 | 232 | 2.6 | 9.6 | 0.00 | 0.00 | 0.00 | 77 | 1012.0 |
| 20260504210436 | 60 | 298 | 2.6 | 9.6 | 0.00 | 0.00 | 0.00 | 77 | 1012.0 |
| 20260504210334 | 60 | 202 | 2.6 | 9.6 | 0.00 | 0.00 | 0.00 | 77 | 1012.0 |
| 20260504210232 | 60 | 184 | 2.6 | 9.6 | 0.00 | 0.00 | 0.00 | 77 | 1012.0 |
| 20260504210126 | 60 | 271 | 2.6 | 8.7 | 0.00 | 0.00 | 0.00 | 77 | 1012.0 |
| 20260504210026 | 60 | 229 | 2.6 | 8.7 | 0.00 | 0.00 | 0.00 | 77 | 1011.9 |
| 20260504205926 | 60 | 284 | 2.6 | 8.7 | 0.00 | 0.00 | 0.00 | 77 | 1012.0 |
| 20260504205826 | 60 | 146 | 2.6 | 8.7 | 0.00 | 0.00 | 0.00 | 77 | 1012.0 |
| 20260504205726 | 60 | 180 | 2.6 | 8.7 | 0.00 | 0.00 | 0.00 | 78 | 1012.0 |
| 20260504205620 | 60 | 287 | 1.7 | 6.1 | 0.00 | 0.00 | 0.00 | 78 | 1012.0 |
| 20260504205520 | 60 | 273 | 1.7 | 6.1 | 0.00 | 0.00 | 0.00 | 78 | 1011.9 |
| 20260504205420 | 60 | 253 | 1.7 | 6.1 | 0.00 | 0.00 | 0.00 | 78 | 1012.0 |
| 20260504205320 | 60 | 203 | 1.7 | 6.1 | 0.00 | 0.00 | 0.00 | 78 | 1012.0 |
| 20260504205220 | 60 | 228 | 1.7 | 6.1 | 0.00 | 0.00 | 0.00 | 78 | 1012.0 |
| 20260504205113 | 60 | 202 | 1.7 | 7.0 | 0.00 | 0.00 | 0.00 | 78 | 1012.0 |
| 20260504205013 | 60 | 246 | 1.7 | 7.0 | 0.00 | 0.00 | 0.00 | 77 | 1012.0 |
| 20260504204914 | 60 | 267 | 1.7 | 7.0 | 0.00 | 0.00 | 0.00 | 78 | 1012.0 |
| 20260504204815 | 60 | 225 | 1.7 | 7.0 | 0.00 | 0.00 | 0.00 | 78 | 1012.0 |
| 20260504204713 | 60 | 85 | 1.7 | 7.0 | 0.00 | 0.00 | 0.00 | 77 | 1012.0 |
| 20260504204608 | 60 | 252 | 1.7 | 7.0 | 0.00 | 0.00 | 0.00 | 77 | 1012.0 |
| 20260504204508 | 60 | 42 | 1.7 | 7.0 | 0.00 | 0.00 | 0.00 | 77 | 1011.9 |
| 20260504204408 | 60 | 242 | 1.7 | 7.0 | 0.00 | 0.00 | 0.00 | 78 | 1012.0 |
| 20260504204308 | 60 | 96 | 1.7 | 7.0 | 0.00 | 0.00 | 0.00 | 78 | 1012.0 |
| 20260504204207 | 60 | 340 | 1.7 | 7.0 | 0.00 | 0.00 | 0.00 | 78 | 1012.1 |
| 20260504204104 | 60 | 92 | 1.7 | 6.1 | 0.00 | 0.00 | 0.00 | 78 | 1012.0 |
| 20260504204005 | 60 | 196 | 1.7 | 6.1 | 0.00 | 0.00 | 0.00 | 78 | 1012.0 |
| 20260504203904 | 60 | 194 | 1.7 | 6.1 | 0.00 | 0.00 | 0.00 | 78 | 1012.0 |
| 20260504203804 | 60 | 205 | 1.7 | 6.1 | 0.00 | 0.00 | 0.00 | 78 | 1012.0 |
| 20260504203702 | 60 | 163 | 1.7 | 6.1 | 0.00 | 0.00 | 0.00 | 78 | 1012.1 |
| 20260504203556 | 60 | 264 | 1.7 | 7.8 | 0.00 | 0.00 | 0.00 | 78 | 1012.0 |
| 20260504203455 | 60 | 319 | 1.7 | 7.8 | 0.00 | 0.00 | 0.00 | 78 | 1012.0 |
| 20260504203442 | 60 | 234 | 1.7 | 7.8 | 0.00 | 0.00 | 0.00 | 78 | 1012.0 |
| 20260504203256 | 60 | 210 | 1.7 | 7.8 | 0.00 | 0.00 | 0.00 | 78 | 1012.1 |
| 20260504203156 | 60 | 260 | 1.7 | 7.8 | 0.00 | 0.00 | 0.00 | 78 | 1012.0 |
| 20260504202936 | 60 | 234 | 1.7 | 7.8 | 0.00 | 0.00 | 0.00 | 77 | 1012.0 |
| 20260504202750 | 60 | 242 | 1.7 | 7.8 | 0.00 | 0.00 | 0.00 | 77 | 1012.0 |
| 20260504202651 | 60 | 248 | 1.7 | 7.8 | 0.00 | 0.00 | 0.00 | 78 | 1012.0 |
| 20260504202550 | 60 | 248 | 1.7 | 7.0 | 0.00 | 0.00 | 0.00 | 78 | 1012.0 |
| 20260504202447 | 60 | 225 | 1.7 | 7.0 | 0.00 | 0.00 | 0.00 | 78 | 1012.0 |
| 20260504202346 | 60 | 36 | 1.7 | 7.0 | 0.00 | 0.00 | 0.00 | 78 | 1012.1 |
| 20260504202246 | 60 | 168 | 1.7 | 7.0 | 0.00 | 0.00 | 0.00 | 78 | 1012.1 |
| 20260504202144 | 60 | 211 | 1.7 | 7.0 | 0.00 | 0.00 | 0.00 | 78 | 1012.1 |
| 20260504202040 | 60 | 227 | 1.7 | 7.0 | 0.00 | 0.00 | 0.00 | 78 | 1012.1 |
| 20260504201940 | 60 | 216 | 1.7 | 7.0 | 0.00 | 0.00 | 0.00 | 78 | 1012.0 |
| 20260504201840 | 60 | 71 | 1.7 | 7.0 | 0.00 | 0.00 | 0.00 | 78 | 1012.1 |
| 20260504201739 | 60 | 235 | 1.7 | 7.0 | 0.00 | 0.00 | 0.00 | 78 | 1012.0 |
| 20260504201637 | 60 | 294 | 1.7 | 7.0 | 0.00 | 0.00 | 0.00 | 78 | 1012.0 |
| 20260504201536 | 60 | 136 | 1.7 | 12.2 | 0.00 | 0.00 | 0.00 | 78 | 1012.0 |
| 20260504201436 | 60 | 249 | 1.7 | 12.2 | 0.00 | 0.00 | 0.00 | 78 | 1012.0 |
| 20260504201336 | 60 | 215 | 1.7 | 12.2 | 0.00 | 0.00 | 0.00 | 78 | 1012.0 |
| 20260504201234 | 60 | 285 | 1.7 | 12.2 | 0.00 | 0.00 | 0.00 | 78 | 1012.0 |
| 20260504201132 | 60 | 281 | 1.7 | 12.2 | 0.00 | 0.00 | 0.00 | 78 | 1012.1 |
| 20260504201028 | 60 | 230 | 1.7 | 12.2 | 0.00 | 0.00 | 0.00 | 78 | 1012.0 |
| 20260504200926 | 60 | 215 | 1.7 | 12.2 | 0.00 | 0.00 | 0.00 | 78 | 1012.1 |
| 20260504200825 | 60 | 287 | 1.7 | 12.2 | 0.00 | 0.00 | 0.00 | 78 | 1012.1 |
| 20260504200726 | 60 | 86 | 1.7 | 12.2 | 0.00 | 0.00 | 0.00 | 78 | 1012.2 |
| 20260504200625 | 60 | 232 | 1.7 | 12.2 | 0.00 | 0.00 | 0.00 | 78 | 1012.1 |
| 20260504200520 | 60 | 300 | 1.7 | 12.2 | 0.00 | 0.00 | 0.00 | 78 | 1012.1 |
| 20260504200420 | 60 | 266 | 2.6 | 12.2 | 0.00 | 0.00 | 0.00 | 78 | 1012.1 |
| 20260504200320 | 60 | 36 | 2.6 | 12.2 | 0.00 | 0.00 | 0.00 | 78 | 1012.2 |
| 20260504200220 | 60 | 355 | 2.6 | 12.2 | 0.00 | 0.00 | 0.00 | 78 | 1012.2 |
| 20260504200119 | 60 | 190 | 2.6 | 12.2 | 0.00 | 0.00 | 0.00 | 77 | 1012.2 |
| 20260504200014 | 60 | 207 | 2.6 | 12.2 | 0.00 | 0.00 | 0.00 | 77 | 1012.1 |
| 20260504195914 | 60 | 286 | 2.6 | 12.2 | 0.00 | 0.00 | 0.00 | 77 | 1012.2 |
| 20260504195814 | 60 | 162 | 2.6 | 12.2 | 0.00 | 0.00 | 0.00 | 78 | 1012.2 |
| 20260504195714 | 60 | 196 | 2.6 | 12.2 | 0.00 | 0.00 | 0.00 | 78 | 1012.1 |
| 20260504195614 | 60 | 215 | 1.7 | 7.0 | 0.00 | 0.00 | 0.00 | 78 | 1012.1 |
| 20260504195507 | 60 | 188 | 1.7 | 7.0 | 0.00 | 0.00 | 0.00 | 78 | 1012.1 |
| 20260504195409 | 60 | 202 | 1.7 | 4.3 | 0.00 | 0.00 | 0.00 | 78 | 1012.1 |
| 20260504195309 | 60 | 244 | 1.7 | 4.3 | 0.00 | 0.00 | 0.00 | 78 | 1012.1 |
| 20260504195207 | 60 | 244 | 1.7 | 4.3 | 0.00 | 0.00 | 0.00 | 78 | 1012.1 |
| 20260504195108 | 60 | 299 | 1.7 | 9.6 | 0.00 | 0.00 | 0.00 | 78 | 1012.0 |
| 20260504195006 | 60 | 186 | 1.7 | 9.6 | 0.00 | 0.00 | 0.00 | 78 | 1012.1 |
| 20260504194906 | 60 | 186 | 1.7 | 9.6 | 0.00 | 0.00 | 0.00 | 78 | 1012.0 |
| 20260504194806 | 60 | 327 | 1.7 | 9.6 | 0.00 | 0.00 | 0.00 | 78 | 1012.1 |
| 20260504194704 | 60 | 248 | 1.7 | 9.6 | 0.00 | 0.00 | 0.00 | 78 | 1012.0 |
| 20260504194601 | 60 | 248 | 1.7 | 9.6 | 0.00 | 0.00 | 0.00 | 78 | 1012.0 |
| 20260504194458 | 60 | 175 | 1.7 | 9.6 | 0.00 | 0.00 | 0.00 | 79 | 1012.0 |
| 20260504194355 | 60 | 173 | 1.7 | 9.6 | 0.00 | 0.00 | 0.00 | 79 | 1012.1 |
| 20260504194256 | 60 | 201 | 1.7 | 9.6 | 0.00 | 0.00 | 0.00 | 79 | 1012.0 |
| 20260504194158 | 59 | 336 | 1.7 | 9.6 | 0.00 | 0.00 | 0.00 | 78 | 1012.0 |
| 20260504194056 | 59 | 205 | 1.7 | 9.6 | 0.00 | 0.00 | 0.00 | 78 | 1012.0 |
| 20260504193952 | 59 | 281 | 1.7 | 9.6 | 0.00 | 0.00 | 0.00 | 78 | 1012.0 |
| 20260504193850 | 59 | 315 | 1.7 | 9.6 | 0.00 | 0.00 | 0.00 | 78 | 1012.0 |
| 20260504193750 | 59 | 287 | 1.7 | 9.6 | 0.00 | 0.00 | 0.00 | 78 | 1012.0 |
| 20260504193650 | 59 | 240 | 2.6 | 9.6 | 0.00 | 0.00 | 0.00 | 78 | 1012.0 |
| 20260504193549 | 59 | 165 | 2.6 | 9.6 | 0.00 | 0.00 | 0.00 | 78 | 1012.0 |
| 20260504193444 | 59 | 122 | 2.6 | 9.6 | 0.00 | 0.00 | 0.00 | 79 | 1012.0 |
| 20260504193344 | 60 | 157 | 2.6 | 9.6 | 0.00 | 0.00 | 0.00 | 79 | 1012.0 |
| 20260504193244 | 59 | 245 | 2.6 | 9.6 | 0.00 | 0.00 | 0.00 | 79 | 1012.0 |
| 20260504193144 | 59 | 239 | 1.7 | 9.6 | 0.00 | 0.00 | 0.00 | 79 | 1012.0 |
| 20260504193043 | 59 | 160 | 1.7 | 6.1 | 0.00 | 0.00 | 0.00 | 79 | 1012.0 |
| 20260504192940 | 59 | 196 | 1.7 | 6.1 | 0.00 | 0.00 | 0.00 | 79 | 1012.0 |
| 20260504192838 | 59 | 184 | 1.7 | 6.1 | 0.00 | 0.00 | 0.00 | 78 | 1012.0 |
| 20260504192738 | 59 | 200 | 1.7 | 6.1 | 0.00 | 0.00 | 0.00 | 79 | 1012.0 |
| 20260504192638 | 59 | 233 | 1.7 | 6.1 | 0.00 | 0.00 | 0.00 | 79 | 1012.1 |
| 20260504192538 | 59 | 286 | 1.7 | 6.1 | 0.00 | 0.00 | 0.00 | 79 | 1012.0 |
| 20260504192436 | 59 | 209 | 1.7 | 6.1 | 0.00 | 0.00 | 0.00 | 79 | 1012.0 |
| 20260504192335 | 59 | 111 | 1.7 | 6.1 | 0.00 | 0.00 | 0.00 | 79 | 1012.0 |
| 20260504192236 | 59 | 300 | 1.7 | 6.1 | 0.00 | 0.00 | 0.00 | 78 | 1012.1 |
| 20260504192134 | 59 | 190 | 1.7 | 6.1 | 0.00 | 0.00 | 0.00 | 78 | 1012.0 |
| 20260504192031 | 59 | 261 | 1.7 | 6.1 | 0.00 | 0.00 | 0.00 | 78 | 1012.1 |
| 20260504191928 | 59 | 323 | 1.7 | 6.1 | 0.00 | 0.00 | 0.00 | 78 | 1012.1 |
| 20260504191828 | 59 | 168 | 1.7 | 6.1 | 0.00 | 0.00 | 0.00 | 78 | 1012.1 |
| 20260504191728 | 59 | 253 | 1.7 | 5.2 | 0.00 | 0.00 | 0.00 | 78 | 1012.1 |
| 20260504191628 | 59 | 213 | 1.7 | 6.1 | 0.00 | 0.00 | 0.00 | 78 | 1012.1 |
| 20260504191526 | 59 | 315 | 1.7 | 6.1 | 0.00 | 0.00 | 0.00 | 78 | 1012.0 |
| 20260504191422 | 59 | 269 | 1.7 | 6.1 | 0.00 | 0.00 | 0.00 | 78 | 1012.0 |
| 20260504191320 | 59 | 233 | 1.7 | 6.1 | 0.00 | 0.00 | 0.00 | 78 | 1012.0 |
| 20260504191220 | 59 | 50 | 1.7 | 6.1 | 0.00 | 0.00 | 0.00 | 78 | 1012.0 |
| 20260504191120 | 59 | 333 | 1.7 | 6.1 | 0.00 | 0.00 | 0.00 | 78 | 1012.1 |
| 20260504191020 | 59 | 284 | 1.7 | 6.1 | 0.00 | 0.00 | 0.00 | 78 | 1012.0 |
| 20260504190914 | 59 | 227 | 1.7 | 6.1 | 0.00 | 0.00 | 0.00 | 79 | 1012.1 |
| 20260504190815 | 59 | 292 | 1.7 | 6.1 | 0.00 | 0.00 | 0.00 | 79 | 1012.0 |
| 20260504190713 | 59 | 236 | 1.7 | 6.1 | 0.00 | 0.00 | 0.00 | 79 | 1012.0 |
| 20260504190613 | 59 | 215 | 1.7 | 5.2 | 0.00 | 0.00 | 0.00 | 79 | 1012.0 |
| 20260504190514 | 59 | 259 | 1.7 | 5.2 | 0.00 | 0.00 | 0.00 | 79 | 1012.0 |
| 20260504190408 | 59 | 112 | 1.7 | 5.2 | 0.00 | 0.00 | 0.00 | 79 | 1012.0 |
| 20260504190307 | 59 | 242 | 1.7 | 5.2 | 0.00 | 0.00 | 0.00 | 79 | 1012.0 |
| 20260504190207 | 59 | 195 | 1.7 | 5.2 | 0.00 | 0.00 | 0.00 | 79 | 1012.0 |
| 20260504190108 | 59 | 195 | 1.7 | 5.2 | 0.00 | 0.00 | 0.00 | 79 | 1012.0 |
| 20260504190008 | 59 | 232 | 1.7 | 5.2 | 0.00 | 0.00 | 0.00 | 79 | 1012.0 |
| 20260504185903 | 59 | 232 | 1.7 | 4.3 | 0.00 | 0.00 | 0.00 | 79 | 1012.0 |
| 20260504185802 | 59 | 205 | 1.7 | 4.3 | 0.00 | 0.00 | 0.00 | 79 | 1012.0 |
| 20260504185752 | 59 | 190 | 1.7 | 4.3 | 0.00 | 0.00 | 0.00 | 79 | 1012.0 |
| 20260504185602 | 59 | 121 | 1.7 | 4.3 | 0.00 | 0.00 | 0.00 | 79 | 1012.0 |
| 20260504185502 | 59 | 147 | 1.7 | 4.3 | 0.00 | 0.00 | 0.00 | 79 | 1012.0 |
| 20260504185358 | 59 | 185 | 1.7 | 9.6 | 0.00 | 0.00 | 0.00 | 79 | 1012.0 |
| 20260504185258 | 59 | 67 | 1.7 | 9.6 | 0.00 | 0.00 | 0.00 | 79 | 1012.0 |
| 20260504185058 | 59 | 183 | 1.7 | 9.6 | 0.00 | 0.00 | 0.00 | 79 | 1012.0 |
| 20260504184956 | 59 | 203 | 1.7 | 9.6 | 0.00 | 0.00 | 0.00 | 79 | 1012.0 |
| 20260504184850 | 59 | 180 | 1.7 | 9.6 | 0.00 | 0.00 | 0.00 | 80 | 1012.0 |
| 20260504184749 | 59 | 163 | 1.7 | 9.6 | 0.00 | 0.00 | 0.00 | 80 | 1012.0 |
| 20260504184649 | 59 | 87 | 1.7 | 9.6 | 0.00 | 0.00 | 0.00 | 80 | 1012.0 |
| 20260504184549 | 59 | 194 | 1.7 | 9.6 | 0.00 | 0.00 | 0.00 | 80 | 1012.0 |
| 20260504184449 | 59 | 130 | 1.7 | 9.6 | 0.00 | 0.00 | 0.00 | 80 | 1011.9 |
| 20260504184344 | 59 | 284 | 1.7 | 3.5 | 0.00 | 0.00 | 0.00 | 80 | 1012.0 |
| 20260504184244 | 59 | 153 | 1.7 | 3.5 | 0.00 | 0.00 | 0.00 | 80 | 1012.0 |
| 20260504184043 | 59 | 140 | 1.7 | 3.5 | 0.00 | 0.00 | 0.00 | 80 | 1012.0 |
| 20260504183943 | 59 | 167 | 1.7 | 7.0 | 0.00 | 0.00 | 0.00 | 80 | 1012.0 |
| 20260504183838 | 59 | 184 | 1.7 | 7.0 | 0.00 | 0.00 | 0.00 | 80 | 1012.0 |
| 20260504183738 | 59 | 178 | 1.7 | 7.0 | 0.00 | 0.00 | 0.00 | 80 | 1012.0 |
| 20260504183638 | 59 | 159 | 1.7 | 7.0 | 0.00 | 0.00 | 0.00 | 80 | 1012.0 |
| 20260504183535 | 59 | 134 | 1.7 | 7.0 | 0.00 | 0.00 | 0.00 | 80 | 1012.0 |
| 20260504183435 | 59 | 136 | 1.7 | 7.0 | 0.00 | 0.00 | 0.00 | 80 | 1012.1 |
| 20260504183330 | 59 | 317 | 1.7 | 7.0 | 0.00 | 0.00 | 0.00 | 80 | 1012.0 |
| 20260504183230 | 59 | 317 | 1.7 | 7.0 | 0.00 | 0.00 | 0.00 | 80 | 1012.0 |
| 20260504183130 | 59 | 298 | 1.7 | 7.0 | 0.00 | 0.00 | 0.00 | 80 | 1012.0 |
| 20260504183030 | 59 | 224 | 1.7 | 7.0 | 0.00 | 0.00 | 0.00 | 80 | 1012.0 |
| 20260504182930 | 58 | 234 | 1.7 | 8.7 | 0.00 | 0.00 | 0.00 | 80 | 1012.0 |
| 20260504182825 | 58 | 297 | 1.7 | 8.7 | 0.00 | 0.00 | 0.00 | 80 | 1012.0 |
| 20260504182724 | 58 | 123 | 1.7 | 8.7 | 0.00 | 0.00 | 0.00 | 80 | 1012.0 |
| 20260504182624 | 59 | 146 | 1.7 | 8.7 | 0.00 | 0.00 | 0.00 | 80 | 1012.0 |
| 20260504182524 | 59 | 225 | 1.7 | 8.7 | 0.00 | 0.00 | 0.00 | 80 | 1012.0 |
| 20260504182424 | 59 | 121 | 1.7 | 8.7 | 0.00 | 0.00 | 0.00 | 80 | 1012.1 |
| 20260504182318 | 59 | 163 | 1.7 | 8.7 | 0.00 | 0.00 | 0.00 | 80 | 1012.1 |
| 20260504182218 | 59 | 327 | 1.7 | 8.7 | 0.00 | 0.00 | 0.00 | 80 | 1012.0 |
| 20260504182018 | 59 | 207 | 1.7 | 8.7 | 0.00 | 0.00 | 0.00 | 81 | 1012.0 |
| 20260504181918 | 59 | 172 | 1.7 | 5.2 | 0.00 | 0.00 | 0.00 | 81 | 1012.0 |
| 20260504181811 | 59 | 171 | 1.7 | 3.5 | 0.00 | 0.00 | 0.00 | 81 | 1012.1 |
| 20260504181711 | 59 | 333 | 1.7 | 3.5 | 0.00 | 0.00 | 0.00 | 81 | 1012.0 |
| 20260504181611 | 59 | 320 | 1.7 | 3.5 | 0.00 | 0.00 | 0.00 | 81 | 1012.0 |
| 20260504181512 | 59 | 198 | 1.7 | 3.5 | 0.00 | 0.00 | 0.00 | 80 | 1012.0 |
| 20260504181412 | 59 | 96 | 1.7 | 3.5 | 0.00 | 0.00 | 0.00 | 81 | 1011.9 |
| 20260504181310 | 59 | 36 | 1.7 | 3.5 | 0.00 | 0.00 | 0.00 | 81 | 1011.9 |
| 20260504181210 | 59 | 142 | 1.7 | 3.5 | 0.00 | 0.00 | 0.00 | 81 | 1011.9 |
| 20260504181110 | 59 | 252 | 1.7 | 3.5 | 0.00 | 0.00 | 0.00 | 81 | 1011.9 |
| 20260504181010 | 59 | 191 | 1.7 | 3.5 | 0.00 | 0.00 | 0.00 | 81 | 1011.9 |
| 20260504180909 | 59 | 175 | 1.7 | 3.5 | 0.00 | 0.00 | 0.00 | 81 | 1011.8 |
| 20260504180809 | 59 | 177 | 0.9 | 3.5 | 0.00 | 0.00 | 0.00 | 81 | 1011.9 |
| 20260504180710 | 59 | 197 | 0.9 | 3.5 | 0.00 | 0.00 | 0.00 | 81 | 1011.9 |
| 20260504180609 | 59 | 120 | 0.9 | 3.5 | 0.00 | 0.00 | 0.00 | 81 | 1011.9 |
| 20260504180510 | 59 | 101 | 0.9 | 5.2 | 0.00 | 0.00 | 0.00 | 82 | 1011.9 |
| 20260504180409 | 59 | 242 | 1.7 | 5.2 | 0.00 | 0.00 | 0.00 | 82 | 1011.9 |
| 20260504180308 | 59 | 165 | 1.7 | 5.2 | 0.00 | 0.00 | 0.00 | 82 | 1011.9 |
| 20260504180246 | 58 | 190 | 0.9 | 5.2 | 0.00 | 0.00 | 0.00 | 82 | 1011.8 |
| 20260504180107 | 58 | 146 | 0.9 | 5.2 | 0.00 | 0.00 | 0.00 | 82 | 1011.8 |
| 20260504180008 | 58 | 317 | 0.9 | 5.2 | 0.00 | 0.00 | 0.00 | 82 | 1011.8 |
| 20260504175907 | 58 | 181 | 1.7 | 5.2 | 0.00 | 0.00 | 0.00 | 82 | 1011.8 |
| 20260504175811 | 58 | 261 | 1.7 | 5.2 | 0.00 | 0.00 | 0.00 | 82 | 1011.8 |
| 20260504175707 | 58 | 182 | 1.7 | 5.2 | 0.00 | 0.00 | 0.00 | 82 | 1011.8 |
| 20260504175604 | 58 | 148 | 1.7 | 5.2 | 0.00 | 0.00 | 0.00 | 82 | 1011.8 |
| 20260504175504 | 58 | 180 | 1.7 | 4.3 | 0.00 | 0.00 | 0.00 | 82 | 1011.7 |
| 20260504175405 | 58 | 180 | 1.7 | 4.3 | 0.00 | 0.00 | 0.00 | 82 | 1011.7 |
| 20260504175304 | 58 | 152 | 1.7 | 4.3 | 0.00 | 0.00 | 0.00 | 82 | 1011.7 |
| 20260504175202 | 58 | 182 | 1.7 | 4.3 | 0.00 | 0.00 | 0.00 | 82 | 1011.7 |
| 20260504175100 | 58 | 132 | 1.7 | 4.3 | 0.00 | 0.00 | 0.00 | 82 | 1011.7 |
| 20260504175000 | 58 | 252 | 1.7 | 5.2 | 0.00 | 0.00 | 0.00 | 82 | 1011.7 |
| 20260504174859 | 58 | 61 | 1.7 | 5.2 | 0.00 | 0.00 | 0.00 | 82 | 1011.7 |
| 20260504174759 | 58 | 320 | 1.7 | 5.2 | 0.00 | 0.00 | 0.00 | 83 | 1011.7 |
| 20260504174659 | 58 | 217 | 1.7 | 5.2 | 0.00 | 0.00 | 0.00 | 83 | 1011.7 |
| 20260504174600 | 58 | 67 | 1.7 | 5.2 | 0.00 | 0.00 | 0.00 | 83 | 1011.7 |
| 20260504174458 | 58 | 91 | 1.7 | 5.2 | 0.00 | 0.00 | 0.00 | 83 | 1011.7 |
| 20260504174358 | 58 | 182 | 1.7 | 5.2 | 0.00 | 0.00 | 0.00 | 83 | 1011.7 |
| 20260504174258 | 58 | 182 | 1.7 | 5.2 | 0.00 | 0.00 | 0.00 | 83 | 1011.7 |
| 20260504174158 | 58 | 134 | 0.9 | 5.2 | 0.00 | 0.00 | 0.00 | 83 | 1011.7 |
| 20260504174058 | 58 | 294 | 0.9 | 5.2 | 0.00 | 0.00 | 0.00 | 83 | 1011.7 |
| 20260504173958 | 58 | 199 | 0.9 | 3.5 | 0.00 | 0.00 | 0.00 | 83 | 1011.7 |
| 20260504173853 | 58 | 346 | 0.9 | 3.5 | 0.00 | 0.00 | 0.00 | 83 | 1011.7 |
| 20260504173754 | 58 | 301 | 0.9 | 3.5 | 0.00 | 0.00 | 0.00 | 83 | 1011.7 |
| 20260504173653 | 58 | 269 | 1.7 | 3.5 | 0.00 | 0.00 | 0.00 | 83 | 1011.7 |
| 20260504173553 | 58 | 348 | 1.7 | 3.5 | 0.00 | 0.00 | 0.00 | 83 | 1011.7 |
| 20260504173453 | 58 | 180 | 0.9 | 3.5 | 0.00 | 0.00 | 0.00 | 83 | 1011.7 |
| 20260504173354 | 58 | 151 | 0.9 | 3.5 | 0.00 | 0.00 | 0.00 | 83 | 1011.7 |
| 20260504173254 | 58 | 156 | 0.9 | 3.5 | 0.00 | 0.00 | 0.00 | 83 | 1011.7 |
| 20260504173154 | 58 | 156 | 1.7 | 3.5 | 0.00 | 0.00 | 0.00 | 83 | 1011.7 |
| 20260504173054 | 58 | 156 | 1.7 | 3.5 | 0.00 | 0.00 | 0.00 | 83 | 1011.7 |
| 20260504172954 | 58 | 163 | 1.7 | 3.5 | 0.00 | 0.00 | 0.00 | 83 | 1011.7 |
| 20260504172854 | 58 | 216 | 1.7 | 3.5 | 0.00 | 0.00 | 0.00 | 84 | 1011.6 |
| 20260504172754 | 58 | 292 | 1.7 | 4.3 | 0.00 | 0.00 | 0.00 | 84 | 1011.6 |
| 20260504172654 | 58 | 188 | 1.7 | 4.3 | 0.00 | 0.00 | 0.00 | 84 | 1011.6 |
| 20260504172553 | 58 | 235 | 1.7 | 4.3 | 0.00 | 0.00 | 0.00 | 84 | 1011.7 |
| 20260504172453 | 58 | 182 | 1.7 | 4.3 | 0.00 | 0.00 | 0.00 | 84 | 1011.6 |
| 20260504172353 | 58 | 182 | 1.7 | 4.3 | 0.00 | 0.00 | 0.00 | 84 | 1011.7 |
| 20260504172253 | 58 | 161 | 1.7 | 5.2 | 0.00 | 0.00 | 0.00 | 84 | 1011.6 |
| 20260504172155 | 58 | 161 | 1.7 | 5.2 | 0.00 | 0.00 | 0.00 | 84 | 1011.7 |
| 20260504172054 | 58 | 168 | 1.7 | 5.2 | 0.00 | 0.00 | 0.00 | 84 | 1011.6 |
| 20260504171950 | 58 | 167 | 1.7 | 5.2 | 0.00 | 0.00 | 0.00 | 84 | 1011.7 |
| 20260504171849 | 58 | 256 | 1.7 | 5.2 | 0.00 | 0.00 | 0.00 | 84 | 1011.7 |
| 20260504171749 | 58 | 210 | 1.7 | 5.2 | 0.00 | 0.00 | 0.00 | 84 | 1011.6 |
| 20260504171549 | 58 | 101 | 1.7 | 5.2 | 0.00 | 0.00 | 0.00 | 84 | 1011.7 |
| 20260504171449 | 58 | 208 | 0.9 | 5.2 | 0.00 | 0.00 | 0.00 | 84 | 1011.7 |
| 20260504171349 | 58 | 165 | 0.9 | 5.2 | 0.00 | 0.00 | 0.00 | 84 | 1011.7 |
| 20260504171249 | 58 | 172 | 1.7 | 3.5 | 0.00 | 0.00 | 0.00 | 85 | 1011.7 |
| 20260504171149 | 57 | 163 | 1.7 | 7.0 | 0.00 | 0.00 | 0.00 | 85 | 1011.6 |
| 20260504171049 | 57 | 171 | 1.7 | 7.0 | 0.00 | 0.00 | 0.00 | 85 | 1011.7 |
| 20260504170949 | 57 | 175 | 1.7 | 7.0 | 0.00 | 0.00 | 0.00 | 85 | 1011.7 |
| 20260504170849 | 57 | 175 | 1.7 | 7.0 | 0.00 | 0.00 | 0.00 | 85 | 1011.6 |
| 20260504170749 | 57 | 164 | 1.7 | 7.0 | 0.00 | 0.00 | 0.00 | 85 | 1011.6 |
| 20260504170550 | 57 | 204 | 1.7 | 7.0 | 0.00 | 0.00 | 0.00 | 85 | 1011.6 |
| 20260504170450 | 57 | 186 | 1.7 | 7.0 | 0.00 | 0.00 | 0.00 | 85 | 1011.6 |
| 20260504170350 | 57 | 209 | 1.7 | 7.0 | 0.00 | 0.00 | 0.00 | 85 | 1011.6 |
| 20260504170250 | 57 | 164 | 0.9 | 7.0 | 0.00 | 0.00 | 0.00 | 85 | 1011.7 |
| 20260504160426 | 56 | 196 | 0.9 | 3.5 | 0.00 | 0.00 | 0.00 | 87 | 1011.1 |
| 20260504160326 | 56 | 347 | 0.9 | 3.5 | 0.00 | 0.00 | 0.00 | 87 | 1011.1 |
| 20260504160225 | 56 | 213 | 0.9 | 3.5 | 0.00 | 0.00 | 0.00 | 88 | 1011.2 |
| 20260504151020 | 55 | 177 | 1.7 | 8.7 | 0.00 | 0.00 | 0.00 | 89 | 1010.8 |
| 20260504150917 | 55 | 46 | 1.7 | 8.7 | 0.00 | 0.00 | 0.00 | 89 | 1010.7 |
| 20260504150815 | 55 | 171 | 1.7 | 8.7 | 0.00 | 0.00 | 0.00 | 89 | 1010.8 |
| 20260504150729 | 55 | 182 | 1.7 | 8.7 | 0.00 | 0.00 | 0.00 | 89 | 1010.7 |
| 20260504150614 | 55 | 183 | 1.7 | 8.7 | 0.00 | 0.00 | 0.00 | 89 | 1010.7 |
| 20260504150511 | 55 | 192 | 1.7 | 8.7 | 0.00 | 0.00 | 0.00 | 89 | 1010.7 |
| 20260504150406 | 55 | 247 | 1.7 | 8.7 | 0.00 | 0.00 | 0.00 | 89 | 1010.7 |
| 20260504150306 | 55 | 177 | 1.7 | 8.7 | 0.00 | 0.00 | 0.00 | 89 | 1010.7 |
| 20260504150206 | 55 | 177 | 1.7 | 8.7 | 0.00 | 0.00 | 0.00 | 89 | 1010.6 |
| 20260504150106 | 55 | 206 | 1.7 | 3.5 | 0.00 | 0.00 | 0.00 | 89 | 1010.6 |
| 20260504141304 | 55 | 180 | 0.9 | 5.2 | 0.00 | 0.00 | 0.00 | 90 | 1010.3 |
| 20260504141204 | 55 | 192 | 0.9 | 5.2 | 0.00 | 0.00 | 0.00 | 90 | 1010.3 |
| 20260504141152 | 55 | 206 | 1.7 | 5.2 | 0.00 | 0.00 | 0.00 | 90 | 1010.2 |
| 20260504141004 | 55 | 51 | 1.7 | 5.2 | 0.00 | 0.00 | 0.00 | 90 | 1010.4 |
| 20260504140904 | 55 | 176 | 1.7 | 4.3 | 0.00 | 0.00 | 0.00 | 90 | 1010.3 |
| 20260504140759 | 55 | 155 | 0.9 | 4.3 | 0.00 | 0.00 | 0.00 | 90 | 1010.3 |
| 20260504140658 | 54 | 174 | 0.9 | 4.3 | 0.00 | 0.00 | 0.00 | 90 | 1010.2 |
| 20260504140559 | 54 | 121 | 0.9 | 4.3 | 0.00 | 0.00 | 0.00 | 90 | 1010.2 |
| 20260504140459 | 54 | 184 | 0.9 | 4.3 | 0.00 | 0.00 | 0.00 | 90 | 1010.2 |
| 20260504140358 | 54 | 123 | 0.9 | 4.3 | 0.00 | 0.00 | 0.00 | 90 | 1010.2 |
| 20260504140256 | 54 | 123 | 0.9 | 4.3 | 0.00 | 0.00 | 0.00 | 90 | 1010.2 |
| 20260504140152 | 54 | 88 | 0.9 | 4.3 | 0.00 | 0.00 | 0.00 | 90 | 1010.2 |
| 20260504140140 | 54 | 121 | 0.9 | 4.3 | 0.00 | 0.00 | 0.00 | 90 | 1010.1 |
| 20260504130752 | 54 | 175 | 0.9 | 7.0 | 0.00 | 0.00 | 0.00 | 90 | 1009.7 |
| 20260504130650 | 54 | 175 | 0.9 | 7.0 | 0.00 | 0.00 | 0.00 | 90 | 1009.7 |
| 20260504130551 | 54 | 126 | 0.9 | 7.0 | 0.00 | 0.00 | 0.00 | 90 | 1009.7 |
| 20260504130450 | 54 | 109 | 0.9 | 7.0 | 0.00 | 0.00 | 0.00 | 90 | 1009.7 |
| 20260504130349 | 54 | 109 | 0.9 | 7.0 | 0.00 | 0.00 | 0.00 | 90 | 1009.7 |
| 20260504130246 | 54 | 109 | 1.7 | 7.0 | 0.00 | 0.00 | 0.00 | 90 | 1009.7 |
| 20260504130143 | 54 | 205 | 1.7 | 7.0 | 0.00 | 0.00 | 0.00 | 90 | 1009.7 |
| 20260504120234 | 54 | 202 | 1.7 | 4.3 | 0.00 | 0.00 | 0.00 | 90 | 1009.4 |
| 20260504120134 | 54 | 161 | 1.7 | 4.3 | 0.00 | 0.00 | 0.00 | 90 | 1009.4 |
| 20260504110628 | 54 | 211 | 1.7 | 3.5 | 0.00 | 0.00 | 0.00 | 89 | 1009.0 |
| 20260504110528 | 54 | 151 | 1.7 | 3.5 | 0.00 | 0.00 | 0.00 | 89 | 1009.0 |
| 20260504110423 | 54 | 159 | 1.7 | 7.0 | 0.00 | 0.00 | 0.00 | 89 | 1008.9 |
| 20260504110324 | 54 | 178 | 1.7 | 7.0 | 0.00 | 0.00 | 0.00 | 89 | 1008.9 |
| 20260504110223 | 54 | 322 | 1.7 | 7.0 | 0.00 | 0.00 | 0.00 | 89 | 1009.0 |
| 20260504110123 | 54 | 200 | 1.7 | 8.7 | 0.00 | 0.00 | 0.00 | 89 | 1008.9 |
| 20260504100515 | 53 | 182 | 1.7 | 4.3 | 0.00 | 0.00 | 0.00 | 88 | 1008.6 |
| 20260504100415 | 53 | 173 | 1.7 | 4.3 | 0.00 | 0.00 | 0.00 | 88 | 1008.6 |
| 20260504100310 | 53 | 226 | 1.7 | 5.2 | 0.00 | 0.00 | 0.00 | 88 | 1008.6 |
| 20260504100209 | 53 | 213 | 1.7 | 5.2 | 0.00 | 0.00 | 0.00 | 88 | 1008.6 |
| 20260504081928 | 53 | 270 | 0.0 | 0.0 | 0.00 | 0.00 | 0.00 | 84 | 1007.4 |
| 20260504081828 | 53 | 270 | 0.0 | 0.0 | 0.00 | 0.00 | 0.00 | 84 | 1007.5 |
| 20260504081728 | 53 | 270 | 0.0 | 0.0 | 0.00 | 0.00 | 0.00 | 84 | 1007.4 |
| 20260504081628 | 53 | 270 | 0.0 | 0.0 | 0.00 | 0.00 | 0.00 | 84 | 1007.4 |
| 20260504081528 | 53 | 270 | 0.0 | 0.0 | 0.00 | 0.00 | 0.00 | 83 | 1007.4 |
| 20260504081428 | 53 | 270 | 0.0 | 0.0 | 0.00 | 0.00 | 0.00 | 84 | 1007.4 |
| 20260504081328 | 53 | 270 | 0.0 | 0.0 | 0.00 | 0.00 | 0.00 | 84 | 1007.4 |
| 20260504081228 | 53 | 270 | 0.0 | 0.0 | 0.00 | 0.00 | 0.00 | 84 | 1007.4 |
| 20260504081128 | 53 | 270 | 0.0 | 0.0 | 0.00 | 0.00 | 0.00 | 84 | 1007.4 |
| 20260504081028 | 53 | 270 | 0.0 | 0.0 | 0.00 | 0.00 | 0.00 | 83 | 1007.5 |
| 20260504080923 | 53 | 270 | 0.0 | 0.0 | 0.00 | 0.00 | 0.00 | 83 | 1007.4 |
| 20260504080823 | 53 | 270 | 0.0 | 0.0 | 0.00 | 0.00 | 0.00 | 83 | 1007.4 |
| 20260504080723 | 53 | 270 | 0.0 | 0.0 | 0.00 | 0.00 | 0.00 | 83 | 1007.3 |
| 20260504080623 | 53 | 270 | 0.0 | 0.0 | 0.00 | 0.00 | 0.00 | 83 | 1007.4 |
| 20260504080523 | 53 | 270 | 0.0 | 0.0 | 0.00 | 0.00 | 0.00 | 83 | 1007.4 |
| 20260504080424 | 53 | 270 | 0.0 | 0.0 | 0.00 | 0.00 | 0.00 | 83 | 1007.4 |
| 20260504080323 | 53 | 270 | 0.0 | 0.0 | 0.00 | 0.00 | 0.00 | 83 | 1007.4 |
| 20260504080223 | 53 | 270 | 0.0 | 0.0 | 0.00 | 0.00 | 0.00 | 83 | 1007.4 |
| 20260504080123 | 53 | 270 | 0.0 | 0.0 | 0.00 | 0.00 | 0.00 | 83 | 1007.4 |
| 20260504070335 | 56 | 9 | 0.0 | 1.7 | 0.00 | 0.00 | 0.00 | 81 | 1007.5 |
| 20260504070235 | 56 | 9 | 0.0 | 1.7 | 0.00 | 0.00 | 0.00 | 81 | 1007.5 |
| 20260504070132 | 56 | 9 | 0.0 | 1.7 | 0.00 | 0.00 | 0.00 | 81 | 1007.5 |
| 20260504060218 | 57 | 254 | 0.9 | 3.5 | 0.00 | 0.00 | 0.00 | 80 | 1007.5 |
| 20260504060118 | 57 | 254 | 0.9 | 2.6 | 0.00 | 0.00 | 0.00 | 80 | 1007.5 |
| 20260504050737 | 57 | 264 | 3.5 | 9.6 | 0.00 | 0.00 | 0.00 | 81 | 1007.4 |
| 20260504050644 | 57 | 273 | 3.5 | 9.6 | 0.00 | 0.00 | 0.00 | 81 | 1007.4 |
| 20260504050634 | 57 | 259 | 3.5 | 9.6 | 0.00 | 0.00 | 0.00 | 81 | 1007.4 |
| 20260504050432 | 57 | 243 | 3.5 | 9.6 | 0.00 | 0.00 | 0.00 | 81 | 1007.4 |
| 20260504050332 | 57 | 268 | 3.5 | 9.6 | 0.00 | 0.00 | 0.00 | 81 | 1007.4 |
| 20260504050232 | 57 | 267 | 3.5 | 9.6 | 0.00 | 0.00 | 0.00 | 81 | 1007.4 |
| 20260504050139 | 58 | 264 | 3.5 | 9.6 | 0.00 | 0.00 | 0.00 | 81 | 1007.4 |
| 20260504050024 | 57 | 229 | 3.5 | 9.6 | 0.00 | 0.00 | 0.00 | 81 | 1007.4 |
| 20260504045923 | 58 | 237 | 3.5 | 6.1 | 0.00 | 0.00 | 0.00 | 81 | 1007.4 |
| 20260504045823 | 58 | 257 | 3.5 | 6.1 | 0.00 | 0.00 | 0.00 | 81 | 1007.4 |
| 20260504045724 | 57 | 273 | 3.5 | 6.1 | 0.00 | 0.00 | 0.00 | 81 | 1007.4 |
| 20260504045623 | 58 | 264 | 4.3 | 6.1 | 0.00 | 0.00 | 0.00 | 81 | 1007.5 |
| 20260504045517 | 58 | 234 | 3.5 | 6.1 | 0.00 | 0.00 | 0.00 | 81 | 1007.4 |
| 20260504045417 | 58 | 240 | 4.3 | 6.1 | 0.00 | 0.00 | 0.00 | 81 | 1007.4 |
| 20260504045317 | 58 | 277 | 4.3 | 7.8 | 0.00 | 0.00 | 0.00 | 81 | 1007.4 |
| 20260504045218 | 58 | 232 | 4.3 | 7.8 | 0.00 | 0.00 | 0.00 | 81 | 1007.4 |
| 20260504045117 | 58 | 260 | 4.3 | 7.8 | 0.00 | 0.00 | 0.00 | 81 | 1007.4 |
| 20260504045011 | 58 | 251 | 4.3 | 7.8 | 0.00 | 0.00 | 0.00 | 81 | 1007.3 |
| 20260504044911 | 58 | 256 | 4.3 | 7.8 | 0.00 | 0.00 | 0.00 | 81 | 1007.3 |
| 20260504044811 | 58 | 259 | 4.3 | 8.7 | 0.00 | 0.00 | 0.00 | 81 | 1007.3 |
| 20260504044712 | 58 | 278 | 4.3 | 8.7 | 0.00 | 0.00 | 0.00 | 81 | 1007.3 |
| 20260504044610 | 58 | 277 | 4.3 | 8.7 | 0.00 | 0.00 | 0.00 | 81 | 1007.4 |
| 20260504044505 | 58 | 232 | 4.3 | 8.7 | 0.00 | 0.00 | 0.00 | 81 | 1007.4 |
| 20260504044405 | 58 | 282 | 4.3 | 8.7 | 0.00 | 0.00 | 0.00 | 81 | 1007.3 |
| 20260504044305 | 58 | 257 | 4.3 | 8.7 | 0.00 | 0.00 | 0.00 | 81 | 1007.3 |
| 20260504044205 | 58 | 259 | 4.3 | 8.7 | 0.00 | 0.00 | 0.00 | 81 | 1007.3 |
| 20260504044104 | 58 | 229 | 4.3 | 8.7 | 0.00 | 0.00 | 0.00 | 81 | 1007.3 |
| 20260504043959 | 58 | 279 | 4.3 | 8.7 | 0.00 | 0.00 | 0.00 | 81 | 1007.3 |
| 20260504043859 | 58 | 241 | 4.3 | 8.7 | 0.00 | 0.00 | 0.00 | 81 | 1007.3 |
| 20260504043800 | 58 | 270 | 4.3 | 8.7 | 0.00 | 0.00 | 0.00 | 81 | 1007.3 |
| 20260504043658 | 58 | 231 | 4.3 | 8.7 | 0.00 | 0.00 | 0.00 | 81 | 1007.3 |
| 20260504043559 | 58 | 262 | 4.3 | 8.7 | 0.00 | 0.00 | 0.00 | 81 | 1007.3 |
| 20260504043452 | 58 | 246 | 4.3 | 8.7 | 0.00 | 0.00 | 0.00 | 81 | 1007.3 |
| 20260504043354 | 58 | 264 | 4.3 | 8.7 | 0.00 | 0.00 | 0.00 | 81 | 1007.3 |
| 20260504043254 | 58 | 285 | 4.3 | 7.8 | 0.00 | 0.00 | 0.00 | 81 | 1007.3 |
| 20260504043154 | 58 | 257 | 4.3 | 7.8 | 0.00 | 0.00 | 0.00 | 81 | 1007.3 |
| 20260504043132 | 58 | 246 | 4.3 | 7.8 | 0.00 | 0.00 | 0.00 | 81 | 1007.3 |
| 20260504042947 | 58 | 241 | 4.3 | 7.8 | 0.00 | 0.00 | 0.00 | 81 | 1007.3 |
| 20260504042847 | 58 | 289 | 4.3 | 7.8 | 0.00 | 0.00 | 0.00 | 81 | 1007.3 |
| 20260504042748 | 58 | 260 | 4.3 | 7.8 | 0.00 | 0.00 | 0.00 | 81 | 1007.3 |
| 20260504042648 | 58 | 244 | 4.3 | 7.8 | 0.00 | 0.00 | 0.00 | 81 | 1007.3 |
| 20260504042547 | 58 | 275 | 4.3 | 7.8 | 0.00 | 0.00 | 0.00 | 81 | 1007.3 |
| 20260504042443 | 58 | 263 | 4.3 | 7.8 | 0.00 | 0.00 | 0.00 | 81 | 1007.3 |
| 20260504042341 | 58 | 285 | 4.3 | 7.8 | 0.00 | 0.00 | 0.00 | 81 | 1007.3 |
| 20260504042241 | 58 | 268 | 4.3 | 7.8 | 0.00 | 0.00 | 0.00 | 81 | 1007.3 |
| 20260504042141 | 58 | 229 | 4.3 | 7.8 | 0.00 | 0.00 | 0.00 | 81 | 1007.2 |
| 20260504042041 | 58 | 254 | 4.3 | 7.8 | 0.00 | 0.00 | 0.00 | 81 | 1007.2 |
| 20260504041935 | 58 | 263 | 4.3 | 7.8 | 0.00 | 0.00 | 0.00 | 81 | 1007.3 |
| 20260504041835 | 58 | 269 | 4.3 | 7.8 | 0.00 | 0.00 | 0.00 | 81 | 1007.2 |
| 20260504041735 | 58 | 259 | 4.3 | 7.8 | 0.00 | 0.00 | 0.00 | 81 | 1007.3 |
| 20260504041635 | 58 | 253 | 4.3 | 7.8 | 0.00 | 0.00 | 0.00 | 81 | 1007.2 |
| 20260504041535 | 58 | 242 | 4.3 | 7.0 | 0.00 | 0.00 | 0.00 | 81 | 1007.3 |
| 20260504041429 | 58 | 241 | 4.3 | 7.0 | 0.00 | 0.00 | 0.00 | 81 | 1007.3 |
| 20260504041328 | 58 | 238 | 4.3 | 7.0 | 0.00 | 0.00 | 0.00 | 80 | 1007.3 |
| 20260504041229 | 58 | 244 | 4.3 | 7.0 | 0.00 | 0.00 | 0.00 | 80 | 1007.2 |
| 20260504041141 | 58 | 250 | 4.3 | 7.0 | 0.00 | 0.00 | 0.00 | 80 | 1007.3 |
| 20260504041131 | 58 | 220 | 4.3 | 7.0 | 0.00 | 0.00 | 0.00 | 80 | 1007.3 |
| 20260504040921 | 58 | 247 | 4.3 | 7.0 | 0.00 | 0.00 | 0.00 | 80 | 1007.2 |
| 20260504040821 | 58 | 266 | 4.3 | 7.0 | 0.00 | 0.00 | 0.00 | 80 | 1007.3 |
| 20260504040721 | 58 | 247 | 4.3 | 7.0 | 0.00 | 0.00 | 0.00 | 80 | 1007.3 |
| 20260504040621 | 58 | 261 | 4.3 | 7.0 | 0.00 | 0.00 | 0.00 | 80 | 1007.3 |
| 20260504040415 | 58 | 249 | 4.3 | 7.8 | 0.00 | 0.00 | 0.00 | 80 | 1007.2 |
| 20260504040315 | 58 | 265 | 4.3 | 7.8 | 0.00 | 0.00 | 0.00 | 80 | 1007.2 |
| 20260504040215 | 58 | 267 | 4.3 | 7.8 | 0.00 | 0.00 | 0.00 | 80 | 1007.2 |
| 20260504040115 | 58 | 265 | 4.3 | 7.8 | 0.00 | 0.00 | 0.00 | 80 | 1007.2 |
| 20260504035909 | 58 | 271 | 5.2 | 8.7 | 0.00 | 0.00 | 0.00 | 79 | 1007.2 |
| 20260504035809 | 58 | 254 | 5.2 | 8.7 | 0.00 | 0.00 | 0.00 | 79 | 1007.2 |
| 20260504035709 | 58 | 260 | 4.3 | 8.7 | 0.00 | 0.00 | 0.00 | 79 | 1007.2 |
| 20260504035623 | 58 | 279 | 4.3 | 8.7 | 0.00 | 0.00 | 0.00 | 79 | 1007.3 |
| 20260504035613 | 58 | 277 | 4.3 | 8.7 | 0.00 | 0.00 | 0.00 | 79 | 1007.2 |
| 20260504035404 | 59 | 270 | 4.3 | 8.7 | 0.00 | 0.00 | 0.00 | 79 | 1007.3 |
| 20260504035304 | 59 | 302 | 4.3 | 8.7 | 0.00 | 0.00 | 0.00 | 78 | 1007.2 |
| 20260504035203 | 59 | 269 | 4.3 | 8.7 | 0.00 | 0.00 | 0.00 | 78 | 1007.3 |
| 20260504035117 | 59 | 251 | 4.3 | 8.7 | 0.00 | 0.00 | 0.00 | 78 | 1007.2 |
| 20260504035107 | 59 | 247 | 4.3 | 8.7 | 0.00 | 0.00 | 0.00 | 78 | 1007.2 |
| 20260504034901 | 59 | 263 | 5.2 | 8.7 | 0.00 | 0.00 | 0.00 | 78 | 1007.2 |
| 20260504034801 | 59 | 284 | 5.2 | 8.7 | 0.00 | 0.00 | 0.00 | 78 | 1007.2 |
| 20260504034701 | 59 | 281 | 5.2 | 8.7 | 0.00 | 0.00 | 0.00 | 77 | 1007.2 |
| 20260504034559 | 59 | 263 | 5.2 | 8.7 | 0.00 | 0.00 | 0.00 | 77 | 1007.2 |
| 20260504034351 | 59 | 235 | 5.2 | 7.8 | 0.00 | 0.00 | 0.00 | 77 | 1007.1 |
| 20260504034251 | 59 | 250 | 4.3 | 7.8 | 0.00 | 0.00 | 0.00 | 77 | 1007.2 |
| 20260504034151 | 59 | 259 | 4.3 | 7.8 | 0.00 | 0.00 | 0.00 | 77 | 1007.2 |
| 20260504034051 | 59 | 288 | 4.3 | 7.8 | 0.00 | 0.00 | 0.00 | 77 | 1007.2 |
| 20260504033845 | 59 | 252 | 4.3 | 7.8 | 0.00 | 0.00 | 0.00 | 76 | 1007.1 |
| 20260504033746 | 59 | 260 | 4.3 | 7.8 | 0.00 | 0.00 | 0.00 | 76 | 1007.1 |
| 20260504033646 | 59 | 278 | 4.3 | 7.8 | 0.00 | 0.00 | 0.00 | 76 | 1007.2 |
| 20260504033545 | 59 | 275 | 4.3 | 7.8 | 0.00 | 0.00 | 0.00 | 76 | 1007.2 |
| 20260504033339 | 60 | 244 | 4.3 | 9.6 | 0.00 | 0.00 | 0.00 | 76 | 1007.1 |
| 20260504033239 | 60 | 257 | 4.3 | 9.6 | 0.00 | 0.00 | 0.00 | 76 | 1007.1 |
| 20260504033139 | 60 | 250 | 4.3 | 9.6 | 0.00 | 0.00 | 0.00 | 76 | 1007.2 |
| 20260504033039 | 60 | 247 | 4.3 | 9.6 | 0.00 | 0.00 | 0.00 | 76 | 1007.2 |
| 20260504032834 | 60 | 286 | 4.3 | 9.6 | 0.00 | 0.00 | 0.00 | 75 | 1007.2 |
| 20260504032733 | 60 | 252 | 4.3 | 9.6 | 0.00 | 0.00 | 0.00 | 75 | 1007.1 |
| 20260504032633 | 60 | 242 | 4.3 | 9.6 | 0.00 | 0.00 | 0.00 | 75 | 1007.0 |
| 20260504032533 | 60 | 284 | 4.3 | 9.6 | 0.00 | 0.00 | 0.00 | 75 | 1007.1 |
| 20260504032329 | 60 | 259 | 4.3 | 8.7 | 0.00 | 0.00 | 0.00 | 75 | 1007.1 |
| 20260504032229 | 60 | 254 | 4.3 | 8.7 | 0.00 | 0.00 | 0.00 | 75 | 1007.1 |
| 20260504032129 | 60 | 273 | 4.3 | 8.7 | 0.00 | 0.00 | 0.00 | 75 | 1007.0 |
| 20260504032028 | 60 | 262 | 4.3 | 8.7 | 0.00 | 0.00 | 0.00 | 75 | 1007.1 |
| 20260504031821 | 60 | 286 | 4.3 | 8.7 | 0.00 | 0.00 | 0.00 | 75 | 1007.0 |
| 20260504031721 | 60 | 286 | 4.3 | 8.7 | 0.00 | 0.00 | 0.00 | 75 | 1007.0 |
| 20260504031621 | 60 | 276 | 4.3 | 8.7 | 0.00 | 0.00 | 0.00 | 75 | 1007.0 |
| 20260504031521 | 60 | 277 | 4.3 | 8.7 | 0.00 | 0.00 | 0.00 | 75 | 1007.0 |
| 20260504031315 | 60 | 294 | 4.3 | 8.7 | 0.00 | 0.00 | 0.00 | 75 | 1007.0 |
| 20260504031214 | 61 | 296 | 4.3 | 8.7 | 0.00 | 0.00 | 0.00 | 75 | 1007.0 |
| 20260504031115 | 61 | 281 | 4.3 | 8.7 | 0.00 | 0.00 | 0.00 | 75 | 1007.0 |
| 20260504031015 | 61 | 254 | 4.3 | 8.7 | 0.00 | 0.00 | 0.00 | 75 | 1007.0 |
| 20260504030809 | 61 | 266 | 4.3 | 8.7 | 0.00 | 0.00 | 0.00 | 75 | 1007.0 |
| 20260504030709 | 61 | 272 | 4.3 | 8.7 | 0.00 | 0.00 | 0.00 | 75 | 1007.0 |
| 20260504030609 | 61 | 259 | 4.3 | 8.7 | 0.00 | 0.00 | 0.00 | 75 | 1007.0 |
| 20260504030509 | 61 | 256 | 4.3 | 8.7 | 0.00 | 0.00 | 0.00 | 75 | 1007.0 |
| 20260504030303 | 61 | 250 | 4.3 | 8.7 | 0.00 | 0.00 | 0.00 | 75 | 1007.1 |
| 20260504030203 | 61 | 256 | 4.3 | 8.7 | 0.00 | 0.00 | 0.00 | 74 | 1007.0 |
| 20260504030005 | 61 | 278 | 4.3 | 8.7 | 0.00 | 0.00 | 0.00 | 74 | 1007.1 |
| 20260504025759 | 62 | 261 | 4.3 | 8.7 | 0.00 | 0.00 | 0.00 | 74 | 1007.0 |
| 20260504025657 | 62 | 288 | 4.3 | 8.7 | 0.00 | 0.00 | 0.00 | 74 | 1007.1 |
| 20260504025557 | 62 | 265 | 4.3 | 8.7 | 0.00 | 0.00 | 0.00 | 75 | 1007.1 |
| 20260504025457 | 62 | 263 | 4.3 | 8.7 | 0.00 | 0.00 | 0.00 | 75 | 1007.1 |
| 20260504025252 | 62 | 279 | 4.3 | 8.7 | 0.00 | 0.00 | 0.00 | 75 | 1007.1 |
| 20260504025152 | 62 | 292 | 4.3 | 8.7 | 0.00 | 0.00 | 0.00 | 75 | 1007.0 |
| 20260504025051 | 62 | 273 | 4.3 | 8.7 | 0.00 | 0.00 | 0.00 | 75 | 1007.1 |
| 20260504024951 | 62 | 236 | 4.3 | 8.7 | 0.00 | 0.00 | 0.00 | 75 | 1007.1 |
| 20260504024745 | 62 | 239 | 4.3 | 8.7 | 0.00 | 0.00 | 0.00 | 75 | 1007.0 |
| 20260504024645 | 62 | 288 | 4.3 | 8.7 | 0.00 | 0.00 | 0.00 | 75 | 1007.1 |
| 20260504024546 | 62 | 269 | 4.3 | 8.7 | 0.00 | 0.00 | 0.00 | 75 | 1007.1 |
| 20260504024445 | 62 | 245 | 4.3 | 10.4 | 0.00 | 0.00 | 0.00 | 75 | 1007.0 |
| 20260504024239 | 62 | 261 | 4.3 | 10.4 | 0.00 | 0.00 | 0.00 | 75 | 1007.1 |
| 20260504024139 | 62 | 300 | 4.3 | 10.4 | 0.00 | 0.00 | 0.00 | 75 | 1007.0 |
| 20260504024039 | 62 | 275 | 4.3 | 10.4 | 0.00 | 0.00 | 0.00 | 75 | 1007.0 |
| 20260504023953 | 62 | 254 | 4.3 | 10.4 | 0.00 | 0.00 | 0.00 | 75 | 1007.1 |
| 20260504023943 | 63 | 278 | 4.3 | 10.4 | 0.00 | 0.00 | 0.00 | 75 | 1007.0 |
| 20260504023733 | 63 | 277 | 4.3 | 10.4 | 0.00 | 0.00 | 0.00 | 74 | 1007.1 |
| 20260504023633 | 63 | 267 | 4.3 | 10.4 | 0.00 | 0.00 | 0.00 | 74 | 1007.1 |
| 20260504023533 | 63 | 263 | 4.3 | 10.4 | 0.00 | 0.00 | 0.00 | 74 | 1007.1 |
| 20260504023433 | 63 | 309 | 4.3 | 8.7 | 0.00 | 0.00 | 0.00 | 74 | 1007.1 |
| 20260504023231 | 63 | 285 | 4.3 | 8.7 | 0.00 | 0.00 | 0.00 | 74 | 1007.1 |
| 20260504023131 | 63 | 259 | 4.3 | 8.7 | 0.00 | 0.00 | 0.00 | 74 | 1007.0 |
| 20260504023031 | 63 | 240 | 4.3 | 8.7 | 0.00 | 0.00 | 0.00 | 73 | 1007.1 |
| 20260504022929 | 63 | 241 | 4.3 | 8.7 | 0.00 | 0.00 | 0.00 | 73 | 1007.1 |
| 20260504022721 | 63 | 265 | 4.3 | 7.8 | 0.00 | 0.00 | 0.00 | 73 | 1007.1 |
| 20260504022621 | 63 | 273 | 4.3 | 7.8 | 0.00 | 0.00 | 0.00 | 73 | 1007.1 |
| 20260504022521 | 63 | 271 | 4.3 | 7.8 | 0.00 | 0.00 | 0.00 | 73 | 1007.1 |
| 20260504022435 | 63 | 293 | 4.3 | 7.8 | 0.00 | 0.00 | 0.00 | 73 | 1007.1 |
| 20260504022425 | 63 | 279 | 4.3 | 7.8 | 0.00 | 0.00 | 0.00 | 73 | 1007.1 |
| 20260504022215 | 64 | 269 | 4.3 | 7.8 | 0.00 | 0.00 | 0.00 | 73 | 1007.2 |
| 20260504022115 | 64 | 265 | 4.3 | 7.8 | 0.00 | 0.00 | 0.00 | 73 | 1007.1 |
| 20260504022014 | 64 | 263 | 4.3 | 7.8 | 0.00 | 0.00 | 0.00 | 73 | 1007.1 |
| 20260504021916 | 64 | 260 | 4.3 | 9.6 | 0.00 | 0.00 | 0.00 | 73 | 1007.1 |
| 20260504021709 | 64 | 251 | 5.2 | 9.6 | 0.00 | 0.00 | 0.00 | 72 | 1007.1 |
| 20260504021609 | 64 | 287 | 5.2 | 9.6 | 0.00 | 0.00 | 0.00 | 72 | 1007.2 |
| 20260504021509 | 64 | 270 | 4.3 | 9.6 | 0.00 | 0.00 | 0.00 | 72 | 1007.2 |
| 20260504021423 | 64 | 273 | 4.3 | 9.6 | 0.00 | 0.00 | 0.00 | 71 | 1007.2 |
| 20260504021413 | 64 | 279 | 4.3 | 9.6 | 0.00 | 0.00 | 0.00 | 71 | 1007.2 |
| 20260504021204 | 64 | 280 | 4.3 | 9.6 | 0.00 | 0.00 | 0.00 | 71 | 1007.2 |
| 20260504021103 | 64 | 275 | 4.3 | 9.6 | 0.00 | 0.00 | 0.00 | 71 | 1007.2 |
| 20260504021003 | 64 | 279 | 4.3 | 9.6 | 0.00 | 0.00 | 0.00 | 71 | 1007.2 |
| 20260504020917 | 64 | 281 | 4.3 | 9.6 | 0.00 | 0.00 | 0.00 | 71 | 1007.2 |
| 20260504020907 | 65 | 278 | 4.3 | 9.6 | 0.00 | 0.00 | 0.00 | 70 | 1007.2 |
| 20260504020701 | 65 | 269 | 4.3 | 9.6 | 0.00 | 0.00 | 0.00 | 70 | 1007.3 |
| 20260504020601 | 65 | 285 | 4.3 | 9.6 | 0.00 | 0.00 | 0.00 | 70 | 1007.3 |
| 20260504020500 | 65 | 252 | 4.3 | 9.6 | 0.00 | 0.00 | 0.00 | 69 | 1007.3 |
| 20260504020359 | 65 | 282 | 4.3 | 9.6 | 0.00 | 0.00 | 0.00 | 69 | 1007.3 |
| 20260504020153 | 65 | 254 | 4.3 | 9.6 | 0.00 | 0.00 | 0.00 | 68 | 1007.2 |
| 20260504020053 | 65 | 273 | 4.3 | 9.6 | 0.00 | 0.00 | 0.00 | 68 | 1007.3 |
| 20260504015953 | 66 | 264 | 4.3 | 7.8 | 0.00 | 0.00 | 0.00 | 68 | 1007.3 |
| 20260504015905 | 66 | 263 | 4.3 | 7.8 | 0.00 | 0.00 | 0.00 | 68 | 1007.3 |
| 20260504015855 | 66 | 285 | 4.3 | 7.8 | 0.00 | 0.00 | 0.00 | 67 | 1007.3 |
| 20260504015644 | 66 | 282 | 4.3 | 7.8 | 0.00 | 0.00 | 0.00 | 67 | 1007.3 |
| 20260504015545 | 66 | 274 | 4.3 | 7.8 | 0.00 | 0.00 | 0.00 | 67 | 1007.3 |
| 20260504015445 | 66 | 254 | 4.3 | 7.8 | 0.00 | 0.00 | 0.00 | 66 | 1007.3 |
| 20260504015345 | 66 | 271 | 4.3 | 7.8 | 0.00 | 0.00 | 0.00 | 66 | 1007.3 |
| 20260504015245 | 66 | 278 | 4.3 | 7.8 | 0.00 | 0.00 | 0.00 | 66 | 1007.3 |
| 20260504015139 | 66 | 292 | 4.3 | 9.6 | 0.00 | 0.00 | 0.00 | 65 | 1007.3 |
| 20260504015039 | 66 | 268 | 4.3 | 9.6 | 0.00 | 0.00 | 0.00 | 65 | 1007.3 |
| 20260504014939 | 67 | 257 | 4.3 | 9.6 | 0.00 | 0.00 | 0.00 | 65 | 1007.3 |
| 20260504014839 | 67 | 237 | 4.3 | 9.6 | 0.00 | 0.00 | 0.00 | 65 | 1007.3 |
| 20260504014738 | 67 | 227 | 4.3 | 9.6 | 0.00 | 0.00 | 0.00 | 64 | 1007.3 |
| 20260504014633 | 67 | 301 | 4.3 | 9.6 | 0.00 | 0.00 | 0.00 | 64 | 1007.3 |
| 20260504014532 | 67 | 303 | 4.3 | 9.6 | 0.00 | 0.00 | 0.00 | 65 | 1007.3 |
| 20260504014433 | 67 | 246 | 4.3 | 9.6 | 0.00 | 0.00 | 0.00 | 64 | 1007.3 |
| 20260504014333 | 67 | 251 | 4.3 | 9.6 | 0.00 | 0.00 | 0.00 | 65 | 1007.4 |
| 20260504014232 | 67 | 236 | 4.3 | 9.6 | 0.00 | 0.00 | 0.00 | 65 | 1007.3 |
| 20260504014129 | 67 | 271 | 4.3 | 9.6 | 0.00 | 0.00 | 0.00 | 65 | 1007.4 |
| 20260504014027 | 67 | 266 | 4.3 | 9.6 | 0.00 | 0.00 | 0.00 | 65 | 1007.4 |
| 20260504013927 | 66 | 267 | 4.3 | 9.6 | 0.00 | 0.00 | 0.00 | 65 | 1007.4 |
| 20260504013827 | 66 | 275 | 4.3 | 10.4 | 0.00 | 0.00 | 0.00 | 65 | 1007.4 |
| 20260504013727 | 66 | 281 | 4.3 | 10.4 | 0.00 | 0.00 | 0.00 | 65 | 1007.4 |
| 20260504013621 | 66 | 306 | 4.3 | 10.4 | 0.00 | 0.00 | 0.00 | 65 | 1007.4 |
| 20260504013523 | 66 | 247 | 4.3 | 10.4 | 0.00 | 0.00 | 0.00 | 65 | 1007.5 |
| 20260504013421 | 66 | 282 | 4.3 | 10.4 | 0.00 | 0.00 | 0.00 | 66 | 1007.4 |
| 20260504013321 | 66 | 313 | 4.3 | 10.4 | 0.00 | 0.00 | 0.00 | 65 | 1007.5 |
| 20260504013220 | 66 | 288 | 4.3 | 10.4 | 0.00 | 0.00 | 0.00 | 65 | 1007.5 |
| 20260504013115 | 66 | 255 | 4.3 | 10.4 | 0.00 | 0.00 | 0.00 | 65 | 1007.5 |
| 20260504013015 | 66 | 290 | 5.2 | 10.4 | 0.00 | 0.00 | 0.00 | 65 | 1007.6 |
| 20260504012915 | 66 | 299 | 5.2 | 10.4 | 0.00 | 0.00 | 0.00 | 65 | 1007.5 |
| 20260504012815 | 66 | 268 | 5.2 | 10.4 | 0.00 | 0.00 | 0.00 | 65 | 1007.5 |
| 20260504012715 | 67 | 242 | 5.2 | 10.4 | 0.00 | 0.00 | 0.00 | 64 | 1007.5 |
| 20260504012609 | 67 | 279 | 5.2 | 10.4 | 0.00 | 0.00 | 0.00 | 64 | 1007.5 |
| 20260504012509 | 67 | 273 | 5.2 | 10.4 | 0.00 | 0.00 | 0.00 | 65 | 1007.5 |
| 20260504012409 | 67 | 229 | 5.2 | 10.4 | 0.00 | 0.00 | 0.00 | 64 | 1007.6 |
| 20260504012351 | 67 | 275 | 5.2 | 10.4 | 0.00 | 0.00 | 0.00 | 64 | 1007.6 |
| 20260504012209 | 67 | 232 | 5.2 | 11.3 | 0.00 | 0.00 | 0.00 | 63 | 1007.6 |
| 20260504012103 | 67 | 273 | 5.2 | 11.3 | 0.00 | 0.00 | 0.00 | 63 | 1007.6 |
| 20260504012003 | 67 | 252 | 5.2 | 11.3 | 0.00 | 0.00 | 0.00 | 63 | 1007.6 |
| 20260504011903 | 67 | 282 | 5.2 | 11.3 | 0.00 | 0.00 | 0.00 | 63 | 1007.6 |
| 20260504011803 | 67 | 250 | 5.2 | 11.3 | 0.00 | 0.00 | 0.00 | 63 | 1007.7 |
| 20260504011703 | 67 | 290 | 5.2 | 11.3 | 0.00 | 0.00 | 0.00 | 62 | 1007.6 |
| 20260504011600 | 67 | 284 | 5.2 | 11.3 | 0.00 | 0.00 | 0.00 | 62 | 1007.7 |
| 20260504011457 | 67 | 302 | 5.2 | 11.3 | 0.00 | 0.00 | 0.00 | 62 | 1007.7 |
| 20260504011357 | 67 | 289 | 5.2 | 11.3 | 0.00 | 0.00 | 0.00 | 61 | 1007.6 |
| 20260504011257 | 67 | 285 | 5.2 | 11.3 | 0.00 | 0.00 | 0.00 | 61 | 1007.7 |
| 20260504011157 | 67 | 307 | 5.2 | 11.3 | 0.00 | 0.00 | 0.00 | 61 | 1007.7 |
| 20260504011053 | 67 | 265 | 5.2 | 11.3 | 0.00 | 0.00 | 0.00 | 61 | 1007.7 |
| 20260504010951 | 67 | 272 | 5.2 | 11.3 | 0.00 | 0.00 | 0.00 | 61 | 1007.7 |
| 20260504010851 | 68 | 292 | 5.2 | 11.3 | 0.00 | 0.00 | 0.00 | 61 | 1007.7 |
| 20260504010751 | 68 | 261 | 5.2 | 11.3 | 0.00 | 0.00 | 0.00 | 60 | 1007.7 |
| 20260504010651 | 68 | 282 | 5.2 | 11.3 | 0.00 | 0.00 | 0.00 | 60 | 1007.8 |
| 20260504010545 | 68 | 290 | 5.2 | 11.3 | 0.00 | 0.00 | 0.00 | 60 | 1007.8 |
| 20260504010445 | 68 | 273 | 5.2 | 11.3 | 0.00 | 0.00 | 0.00 | 60 | 1007.8 |
| 20260504010359 | 68 | 275 | 5.2 | 11.3 | 0.00 | 0.00 | 0.00 | 59 | 1007.8 |
| 20260504010349 | 68 | 134 | 5.2 | 11.3 | 0.00 | 0.00 | 0.00 | 58 | 1007.8 |
| 20260504010145 | 68 | 247 | 5.2 | 11.3 | 0.00 | 0.00 | 0.00 | 58 | 1007.7 |
| 20260504010038 | 68 | 240 | 5.2 | 11.3 | 0.00 | 0.00 | 0.00 | 58 | 1007.8 |
| 20260504005938 | 68 | 262 | 5.2 | 11.3 | 0.00 | 0.00 | 0.00 | 57 | 1007.8 |
| 20260504005838 | 69 | 329 | 5.2 | 11.3 | 0.00 | 0.00 | 0.00 | 58 | 1007.8 |
| 20260504005740 | 69 | 242 | 5.2 | 11.3 | 0.00 | 0.00 | 0.00 | 57 | 1007.8 |
| 20260504005639 | 69 | 257 | 5.2 | 11.3 | 0.00 | 0.00 | 0.00 | 57 | 1007.8 |
| 20260504005535 | 69 | 272 | 5.2 | 11.3 | 0.00 | 0.00 | 0.00 | 56 | 1007.8 |
| 20260504005433 | 69 | 269 | 5.2 | 11.3 | 0.00 | 0.00 | 0.00 | 56 | 1007.9 |
| 20260504005334 | 69 | 293 | 5.2 | 11.3 | 0.00 | 0.00 | 0.00 | 56 | 1007.8 |
| 20260504005232 | 69 | 248 | 5.2 | 11.3 | 0.00 | 0.00 | 0.00 | 56 | 1007.8 |
| 20260504005132 | 69 | 273 | 5.2 | 10.4 | 0.00 | 0.00 | 0.00 | 56 | 1007.8 |
| 20260504005029 | 69 | 310 | 5.2 | 10.4 | 0.00 | 0.00 | 0.00 | 56 | 1007.9 |
| 20260504004929 | 69 | 223 | 5.2 | 10.4 | 0.00 | 0.00 | 0.00 | 55 | 1007.8 |
| 20260504004829 | 69 | 280 | 5.2 | 10.4 | 0.00 | 0.00 | 0.00 | 56 | 1007.9 |
| 20260504004729 | 69 | 280 | 5.2 | 10.4 | 0.00 | 0.00 | 0.00 | 56 | 1007.9 |
| 20260504004627 | 69 | 291 | 5.2 | 10.4 | 0.00 | 0.00 | 0.00 | 55 | 1007.9 |
| 20260504004522 | 69 | 258 | 5.2 | 10.4 | 0.00 | 0.00 | 0.00 | 55 | 1007.9 |
| 20260504004422 | 69 | 251 | 5.2 | 10.4 | 0.00 | 0.00 | 0.00 | 55 | 1007.9 |
| 20260504004323 | 69 | 310 | 4.3 | 10.4 | 0.00 | 0.00 | 0.00 | 56 | 1007.9 |
| 20260504004222 | 69 | 270 | 4.3 | 10.4 | 0.00 | 0.00 | 0.00 | 55 | 1007.9 |
| 20260504004120 | 69 | 355 | 4.3 | 9.6 | 0.00 | 0.00 | 0.00 | 55 | 1007.9 |
| 20260504004015 | 69 | 319 | 5.2 | 9.6 | 0.00 | 0.00 | 0.00 | 56 | 1007.9 |
| 20260504003915 | 70 | 258 | 5.2 | 9.6 | 0.00 | 0.00 | 0.00 | 55 | 1008.0 |
| 20260504003814 | 70 | 313 | 5.2 | 9.6 | 0.00 | 0.00 | 0.00 | 56 | 1008.0 |
| 20260504003715 | 70 | 269 | 5.2 | 9.6 | 0.00 | 0.00 | 0.00 | 55 | 1007.9 |
| 20260504003615 | 70 | 314 | 5.2 | 9.6 | 0.00 | 0.00 | 0.00 | 55 | 1007.9 |
| 20260504003509 | 70 | 279 | 5.2 | 9.6 | 0.00 | 0.00 | 0.00 | 55 | 1007.9 |
| 20260504003409 | 70 | 273 | 5.2 | 9.6 | 0.00 | 0.00 | 0.00 | 54 | 1008.0 |
| 20260504003309 | 70 | 261 | 5.2 | 9.6 | 0.00 | 0.00 | 0.00 | 54 | 1007.9 |
| 20260504003209 | 70 | 272 | 5.2 | 9.6 | 0.00 | 0.00 | 0.00 | 54 | 1008.0 |
| 20260504003109 | 71 | 275 | 5.2 | 9.6 | 0.00 | 0.00 | 0.00 | 54 | 1008.0 |
| 20260504003005 | 71 | 260 | 5.2 | 9.6 | 0.00 | 0.00 | 0.00 | 54 | 1008.0 |
| 20260504002904 | 71 | 288 | 5.2 | 9.6 | 0.00 | 0.00 | 0.00 | 54 | 1008.0 |
| 20260504002804 | 71 | 288 | 5.2 | 9.6 | 0.00 | 0.00 | 0.00 | 54 | 1008.0 |
| 20260504002702 | 71 | 261 | 5.2 | 9.6 | 0.00 | 0.00 | 0.00 | 55 | 1008.0 |
| 20260504002601 | 71 | 275 | 5.2 | 9.6 | 0.00 | 0.00 | 0.00 | 55 | 1008.0 |
| 20260504002455 | 71 | 311 | 5.2 | 9.6 | 0.00 | 0.00 | 0.00 | 55 | 1008.0 |
| 20260504002355 | 71 | 254 | 5.2 | 9.6 | 0.00 | 0.00 | 0.00 | 54 | 1008.1 |
| 20260504002255 | 71 | 249 | 5.2 | 9.6 | 0.00 | 0.00 | 0.00 | 54 | 1008.0 |
| 20260504002155 | 71 | 296 | 5.2 | 9.6 | 0.00 | 0.00 | 0.00 | 55 | 1008.0 |
| 20260504002054 | 71 | 316 | 5.2 | 9.6 | 0.00 | 0.00 | 0.00 | 55 | 1008.0 |
| 20260504001949 | 71 | 310 | 5.2 | 9.6 | 0.00 | 0.00 | 0.00 | 55 | 1008.0 |
| 20260504001849 | 71 | 287 | 5.2 | 9.6 | 0.00 | 0.00 | 0.00 | 55 | 1007.9 |
| 20260504001749 | 71 | 286 | 5.2 | 10.4 | 0.00 | 0.00 | 0.00 | 56 | 1008.0 |
| 20260504001649 | 71 | 275 | 5.2 | 10.4 | 0.00 | 0.00 | 0.00 | 56 | 1008.0 |
| 20260504001549 | 71 | 238 | 5.2 | 10.4 | 0.00 | 0.00 | 0.00 | 56 | 1008.0 |
| 20260504001443 | 71 | 264 | 5.2 | 10.4 | 0.00 | 0.00 | 0.00 | 56 | 1008.0 |
| 20260504001342 | 71 | 292 | 5.2 | 10.4 | 0.00 | 0.00 | 0.00 | 56 | 1008.0 |
| 20260504001330 | 71 | 286 | 5.2 | 10.4 | 0.00 | 0.00 | 0.00 | 57 | 1008.0 |
| 20260504001143 | 71 | 257 | 6.1 | 10.4 | 0.00 | 0.00 | 0.00 | 57 | 1008.0 |
| 20260504001043 | 71 | 291 | 6.1 | 10.4 | 0.00 | 0.00 | 0.00 | 58 | 1008.0 |
| 20260504000938 | 71 | 254 | 6.1 | 10.4 | 0.00 | 0.00 | 0.00 | 57 | 1008.0 |
| 20260504000839 | 71 | 273 | 6.1 | 10.4 | 0.00 | 0.00 | 0.00 | 58 | 1008.0 |
| 20260504000829 | 71 | 296 | 6.1 | 11.3 | 0.00 | 0.00 | 0.00 | 58 | 1008.0 |
| 20260504000637 | 71 | 279 | 6.1 | 11.3 | 0.00 | 0.00 | 0.00 | 58 | 1008.1 |
| 20260504000536 | 71 | 250 | 5.2 | 11.3 | 0.00 | 0.00 | 0.00 | 58 | 1008.1 |
| 20260504000432 | 71 | 236 | 5.2 | 11.3 | 0.00 | 0.00 | 0.00 | 57 | 1008.0 |
| 20260504000332 | 71 | 267 | 5.2 | 11.3 | 0.00 | 0.00 | 0.00 | 57 | 1008.0 |
| 20260504000234 | 71 | 238 | 5.2 | 11.3 | 0.00 | 0.00 | 0.00 | 57 | 1008.0 |
| 20260504000132 | 71 | 254 | 6.1 | 12.2 | 0.00 | 0.00 | 0.00 | 57 | 1008.1 |
| 20260504000030 | 71 | 351 | 5.2 | 13.0 | 0.00 | 0.00 | 0.00 | 57 | 1008.1 |
| 20260503235925 | 71 | 265 | 5.2 | 13.0 | 0.00 | 0.00 | 0.00 | 56 | 1008.2 |
| 20260503235825 | 71 | 288 | 5.2 | 13.0 | 0.00 | 0.00 | 0.00 | 56 | 1008.1 |
| 20260503235727 | 71 | 332 | 5.2 | 13.0 | 0.00 | 0.00 | 0.00 | 56 | 1008.1 |
| 20260503235625 | 71 | 276 | 5.2 | 13.0 | 0.00 | 0.00 | 0.00 | 55 | 1008.2 |
| 20260503235525 | 71 | 300 | 6.1 | 13.0 | 0.00 | 0.00 | 0.00 | 55 | 1008.2 |
| 20260503235423 | 71 | 0 | 6.1 | 13.0 | 0.00 | 0.00 | 0.00 | 54 | 1008.1 |
| 20260503235323 | 71 | 263 | 6.1 | 13.0 | 0.00 | 0.00 | 0.00 | 54 | 1008.2 |
| 20260503235123 | 71 | 304 | 5.2 | 12.2 | 0.00 | 0.00 | 0.00 | 55 | 1008.3 |
| 20260503235022 | 71 | 277 | 5.2 | 12.2 | 0.00 | 0.00 | 0.00 | 55 | 1008.3 |
| 20260503234922 | 71 | 294 | 6.1 | 12.2 | 0.00 | 0.00 | 0.00 | 55 | 1008.3 |
| 20260503234823 | 71 | 315 | 5.2 | 12.2 | 0.00 | 0.00 | 0.00 | 55 | 1008.3 |
| 20260503234622 | 71 | 281 | 6.1 | 11.3 | 0.00 | 0.00 | 0.00 | 55 | 1008.3 |
| 20260503234523 | 71 | 258 | 6.1 | 11.3 | 0.00 | 0.00 | 0.00 | 55 | 1008.3 |
| 20260503234421 | 70 | 294 | 6.1 | 11.3 | 0.00 | 0.00 | 0.00 | 55 | 1008.3 |
| 20260503234319 | 70 | 233 | 6.1 | 11.3 | 0.00 | 0.00 | 0.00 | 56 | 1008.3 |
| 20260503234216 | 70 | 265 | 6.1 | 11.3 | 0.00 | 0.00 | 0.00 | 56 | 1008.3 |
| 20260503234117 | 70 | 267 | 6.1 | 13.0 | 0.00 | 0.00 | 0.00 | 56 | 1008.3 |
| 20260503234016 | 70 | 265 | 6.1 | 13.0 | 0.00 | 0.00 | 0.00 | 56 | 1008.3 |
| 20260503233917 | 70 | 236 | 6.1 | 13.0 | 0.00 | 0.00 | 0.00 | 56 | 1008.4 |
| 20260503233817 | 70 | 262 | 6.1 | 13.0 | 0.00 | 0.00 | 0.00 | 56 | 1008.4 |
| 20260503233717 | 70 | 252 | 6.1 | 13.0 | 0.00 | 0.00 | 0.00 | 56 | 1008.4 |
| 20260503233617 | 70 | 242 | 6.1 | 13.0 | 0.00 | 0.00 | 0.00 | 56 | 1008.3 |
| 20260503233518 | 71 | 266 | 6.1 | 13.0 | 0.00 | 0.00 | 0.00 | 56 | 1008.4 |
| 20260503233417 | 71 | 241 | 6.1 | 13.0 | 0.00 | 0.00 | 0.00 | 56 | 1008.4 |
| 20260503233317 | 70 | 262 | 6.1 | 13.0 | 0.00 | 0.00 | 0.00 | 56 | 1008.4 |
| 20260503233212 | 70 | 277 | 6.1 | 13.0 | 0.00 | 0.00 | 0.00 | 57 | 1008.5 |
| 20260503233110 | 70 | 317 | 6.1 | 13.9 | 0.00 | 0.00 | 0.00 | 56 | 1008.4 |
| 20260503233010 | 70 | 279 | 6.1 | 14.8 | 0.00 | 0.00 | 0.00 | 58 | 1008.4 |
| 20260503232911 | 70 | 278 | 6.1 | 14.8 | 0.00 | 0.00 | 0.00 | 58 | 1008.4 |
| 20260503232810 | 70 | 289 | 6.1 | 14.8 | 0.00 | 0.00 | 0.00 | 58 | 1008.5 |
| 20260503232705 | 70 | 263 | 6.1 | 14.8 | 0.00 | 0.00 | 0.00 | 58 | 1008.5 |
| 20260503232605 | 70 | 283 | 6.1 | 14.8 | 0.00 | 0.00 | 0.00 | 57 | 1008.5 |
| 20260503232505 | 70 | 275 | 6.1 | 14.8 | 0.00 | 0.00 | 0.00 | 57 | 1008.5 |
| 20260503232404 | 70 | 229 | 6.1 | 14.8 | 0.00 | 0.00 | 0.00 | 58 | 1008.6 |
| 20260503232305 | 70 | 279 | 6.1 | 14.8 | 0.00 | 0.00 | 0.00 | 57 | 1008.5 |
| 20260503232159 | 70 | 296 | 6.1 | 14.8 | 0.00 | 0.00 | 0.00 | 57 | 1008.6 |
| 20260503232059 | 70 | 263 | 6.1 | 14.8 | 0.00 | 0.00 | 0.00 | 57 | 1008.5 |
| 20260503231959 | 70 | 287 | 6.1 | 10.4 | 0.00 | 0.00 | 0.00 | 58 | 1008.5 |
| 20260503231859 | 70 | 275 | 5.2 | 10.4 | 0.00 | 0.00 | 0.00 | 58 | 1008.6 |
| 20260503231759 | 70 | 258 | 5.2 | 10.4 | 0.00 | 0.00 | 0.00 | 58 | 1008.6 |
| 20260503231657 | 70 | 281 | 5.2 | 10.4 | 0.00 | 0.00 | 0.00 | 58 | 1008.5 |
| 20260503231557 | 70 | 271 | 5.2 | 10.4 | 0.00 | 0.00 | 0.00 | 57 | 1008.6 |
| 20260503231457 | 70 | 269 | 5.2 | 10.4 | 0.00 | 0.00 | 0.00 | 58 | 1008.6 |
| 20260503231356 | 70 | 281 | 5.2 | 10.4 | 0.00 | 0.00 | 0.00 | 58 | 1008.6 |
| 20260503231257 | 70 | 242 | 5.2 | 10.4 | 0.00 | 0.00 | 0.00 | 58 | 1008.6 |
| 20260503231157 | 70 | 259 | 6.1 | 10.4 | 0.00 | 0.00 | 0.00 | 58 | 1008.6 |
| 20260503231057 | 70 | 240 | 6.1 | 10.4 | 0.00 | 0.00 | 0.00 | 58 | 1008.7 |
| 20260503230957 | 70 | 300 | 6.1 | 13.9 | 0.00 | 0.00 | 0.00 | 58 | 1008.7 |
| 20260503230855 | 70 | 263 | 6.1 | 13.9 | 0.00 | 0.00 | 0.00 | 58 | 1008.7 |
| 20260503230754 | 70 | 307 | 6.1 | 13.9 | 0.00 | 0.00 | 0.00 | 58 | 1008.7 |
| 20260503230655 | 70 | 275 | 6.1 | 13.9 | 0.00 | 0.00 | 0.00 | 59 | 1008.7 |
| 20260503230554 | 70 | 257 | 6.1 | 13.9 | 0.00 | 0.00 | 0.00 | 59 | 1008.7 |
| 20260503230454 | 70 | 313 | 6.1 | 13.9 | 0.00 | 0.00 | 0.00 | 58 | 1008.7 |
| 20260503230354 | 70 | 296 | 6.1 | 13.9 | 0.00 | 0.00 | 0.00 | 57 | 1008.7 |
| 20260503230254 | 70 | 250 | 6.1 | 13.9 | 0.00 | 0.00 | 0.00 | 58 | 1008.7 |
| 20260503230153 | 70 | 252 | 6.1 | 13.9 | 0.00 | 0.00 | 0.00 | 57 | 1008.8 |
| 20260503230053 | 70 | 245 | 6.1 | 13.9 | 0.00 | 0.00 | 0.00 | 58 | 1008.8 |
| 20260503225953 | 70 | 272 | 6.1 | 13.9 | 0.00 | 0.00 | 0.00 | 58 | 1008.7 |
| 20260503225853 | 70 | 276 | 6.1 | 13.9 | 0.00 | 0.00 | 0.00 | 57 | 1008.8 |
| 20260503225820 | 70 | 325 | 6.1 | 13.9 | 0.00 | 0.00 | 0.00 | 58 | 1008.7 |
| 20260503225653 | 70 | 260 | 6.1 | 13.9 | 0.00 | 0.00 | 0.00 | 58 | 1008.8 |
| 20260503225552 | 70 | 330 | 6.1 | 13.9 | 0.00 | 0.00 | 0.00 | 57 | 1008.8 |
| 20260503225452 | 70 | 179 | 6.1 | 13.9 | 0.00 | 0.00 | 0.00 | 57 | 1008.9 |
| 20260503225352 | 70 | 263 | 6.1 | 13.9 | 0.00 | 0.00 | 0.00 | 57 | 1008.8 |
| 20260503225252 | 70 | 12 | 6.1 | 13.9 | 0.00 | 0.00 | 0.00 | 57 | 1008.9 |
| 20260503225152 | 70 | 254 | 5.2 | 13.9 | 0.00 | 0.00 | 0.00 | 57 | 1008.8 |
| 20260503225052 | 71 | 270 | 5.2 | 13.9 | 0.00 | 0.00 | 0.00 | 57 | 1008.9 |
| 20260503224952 | 71 | 257 | 5.2 | 13.0 | 0.00 | 0.00 | 0.00 | 56 | 1008.9 |
| 20260503224853 | 71 | 309 | 5.2 | 13.0 | 0.00 | 0.00 | 0.00 | 56 | 1008.9 |
| 20260503224753 | 71 | 299 | 5.2 | 13.0 | 0.00 | 0.00 | 0.00 | 56 | 1008.9 |
| 20260503224653 | 71 | 288 | 5.2 | 13.0 | 0.00 | 0.00 | 0.00 | 56 | 1008.9 |
| 20260503224549 | 71 | 291 | 5.2 | 12.2 | 0.00 | 0.00 | 0.00 | 57 | 1009.0 |
| 20260503224449 | 71 | 308 | 5.2 | 12.2 | 0.00 | 0.00 | 0.00 | 57 | 1009.0 |
| 20260503224348 | 71 | 325 | 5.2 | 12.2 | 0.00 | 0.00 | 0.00 | 56 | 1009.0 |
| 20260503224248 | 71 | 288 | 5.2 | 12.2 | 0.00 | 0.00 | 0.00 | 57 | 1009.0 |
| 20260503224148 | 71 | 272 | 5.2 | 12.2 | 0.00 | 0.00 | 0.00 | 56 | 1009.0 |
| 20260503224048 | 71 | 252 | 6.1 | 12.2 | 0.00 | 0.00 | 0.00 | 57 | 1009.0 |
| 20260503223948 | 71 | 302 | 5.2 | 12.2 | 0.00 | 0.00 | 0.00 | 57 | 1009.0 |
| 20260503223848 | 71 | 277 | 5.2 | 12.2 | 0.00 | 0.00 | 0.00 | 56 | 1009.0 |
| 20260503223748 | 71 | 257 | 5.2 | 12.2 | 0.00 | 0.00 | 0.00 | 56 | 1009.0 |
| 20260503223648 | 71 | 274 | 5.2 | 12.2 | 0.00 | 0.00 | 0.00 | 57 | 1009.0 |
| 20260503223549 | 71 | 303 | 5.2 | 12.2 | 0.00 | 0.00 | 0.00 | 56 | 1009.1 |
| 20260503223449 | 71 | 254 | 5.2 | 12.2 | 0.00 | 0.00 | 0.00 | 56 | 1009.1 |
| 20260503223349 | 71 | 277 | 5.2 | 12.2 | 0.00 | 0.00 | 0.00 | 56 | 1009.1 |
| 20260503223249 | 71 | 273 | 4.3 | 12.2 | 0.00 | 0.00 | 0.00 | 55 | 1009.1 |
| 20260503223149 | 71 | 319 | 4.3 | 10.4 | 0.00 | 0.00 | 0.00 | 56 | 1009.1 |
| 20260503223049 | 72 | 297 | 4.3 | 10.4 | 0.00 | 0.00 | 0.00 | 55 | 1009.1 |
| 20260503222948 | 72 | 288 | 5.2 | 10.4 | 0.00 | 0.00 | 0.00 | 55 | 1009.1 |
| 20260503222848 | 72 | 257 | 5.2 | 10.4 | 0.00 | 0.00 | 0.00 | 55 | 1009.1 |
| 20260503222749 | 72 | 252 | 5.2 | 9.6 | 0.00 | 0.00 | 0.00 | 55 | 1009.2 |
| 20260503222645 | 72 | 272 | 5.2 | 9.6 | 0.00 | 0.00 | 0.00 | 56 | 1009.2 |
| 20260503222545 | 72 | 292 | 5.2 | 9.6 | 0.00 | 0.00 | 0.00 | 56 | 1009.3 |
| 20260503222445 | 72 | 284 | 5.2 | 9.6 | 0.00 | 0.00 | 0.00 | 56 | 1009.3 |
| 20260503222345 | 72 | 284 | 5.2 | 9.6 | 0.00 | 0.00 | 0.00 | 55 | 1009.3 |
| 20260503222245 | 72 | 279 | 5.2 | 9.6 | 0.00 | 0.00 | 0.00 | 55 | 1009.3 |
| 20260503222144 | 72 | 216 | 5.2 | 9.6 | 0.00 | 0.00 | 0.00 | 54 | 1009.3 |
| 20260503222044 | 72 | 277 | 5.2 | 9.6 | 0.00 | 0.00 | 0.00 | 55 | 1009.3 |
| 20260503221944 | 72 | 322 | 5.2 | 13.0 | 0.00 | 0.00 | 0.00 | 55 | 1009.3 |
| 20260503221844 | 72 | 250 | 5.2 | 13.0 | 0.00 | 0.00 | 0.00 | 55 | 1009.3 |
| 20260503221744 | 72 | 303 | 5.2 | 13.0 | 0.00 | 0.00 | 0.00 | 55 | 1009.3 |
| 20260503221644 | 72 | 346 | 5.2 | 13.0 | 0.00 | 0.00 | 0.00 | 55 | 1009.3 |
| 20260503221544 | 72 | 269 | 5.2 | 13.0 | 0.00 | 0.00 | 0.00 | 55 | 1009.3 |
| 20260503221445 | 72 | 244 | 5.2 | 13.0 | 0.00 | 0.00 | 0.00 | 55 | 1009.3 |
| 20260503221345 | 72 | 355 | 5.2 | 13.0 | 0.00 | 0.00 | 0.00 | 55 | 1009.3 |
| 20260503221245 | 72 | 260 | 5.2 | 13.0 | 0.00 | 0.00 | 0.00 | 56 | 1009.3 |
| 20260503221145 | 72 | 233 | 5.2 | 13.0 | 0.00 | 0.00 | 0.00 | 55 | 1009.3 |
| 20260503221045 | 72 | 260 | 6.1 | 13.0 | 0.00 | 0.00 | 0.00 | 55 | 1009.3 |
| 20260503220945 | 72 | 300 | 5.2 | 13.0 | 0.00 | 0.00 | 0.00 | 55 | 1009.3 |
| 20260503220844 | 72 | 275 | 5.2 | 13.0 | 0.00 | 0.00 | 0.00 | 55 | 1009.3 |
| 20260503220740 | 72 | 330 | 5.2 | 13.0 | 0.00 | 0.00 | 0.00 | 55 | 1009.3 |
| 20260503220640 | 72 | 252 | 5.2 | 13.0 | 0.00 | 0.00 | 0.00 | 54 | 1009.4 |
| 20260503220540 | 72 | 245 | 5.2 | 13.0 | 0.00 | 0.00 | 0.00 | 54 | 1009.4 |
| 20260503220440 | 72 | 267 | 5.2 | 13.0 | 0.00 | 0.00 | 0.00 | 54 | 1009.3 |
| 20260503220341 | 72 | 280 | 5.2 | 13.0 | 0.00 | 0.00 | 0.00 | 54 | 1009.3 |
| 20260503220241 | 72 | 181 | 5.2 | 13.0 | 0.00 | 0.00 | 0.00 | 53 | 1009.3 |
| 20260503220141 | 72 | 291 | 5.2 | 13.0 | 0.00 | 0.00 | 0.00 | 53 | 1009.3 |
| 20260503220041 | 72 | 281 | 5.2 | 13.0 | 0.00 | 0.00 | 0.00 | 54 | 1009.4 |
| 20260503215941 | 72 | 250 | 5.2 | 10.4 | 0.00 | 0.00 | 0.00 | 54 | 1009.4 |
| 20260503215841 | 72 | 319 | 5.2 | 10.4 | 0.00 | 0.00 | 0.00 | 54 | 1009.4 |
| 20260503215741 | 73 | 219 | 5.2 | 10.4 | 0.00 | 0.00 | 0.00 | 52 | 1009.4 |
| 20260503215641 | 73 | 286 | 5.2 | 10.4 | 0.00 | 0.00 | 0.00 | 52 | 1009.4 |
| 20260503215541 | 73 | 267 | 5.2 | 10.4 | 0.00 | 0.00 | 0.00 | 53 | 1009.4 |
| 20260503215441 | 73 | 237 | 4.3 | 10.4 | 0.00 | 0.00 | 0.00 | 52 | 1009.4 |
| 20260503215341 | 73 | 255 | 4.3 | 10.4 | 0.00 | 0.00 | 0.00 | 52 | 1009.4 |
| 20260503215241 | 73 | 265 | 4.3 | 10.4 | 0.00 | 0.00 | 0.00 | 53 | 1009.4 |
| 20260503215141 | 73 | 267 | 5.2 | 11.3 | 0.00 | 0.00 | 0.00 | 53 | 1009.4 |